KC5DAQ-23 Weather Reports


time (UTC)temp
F
wind
direction
speed
knots
gust
knots
rain 1hr
in
rain 24hr
in
rain mn
in
humidity
%
barometer
mb
20240222112403 67 162 3.5 7.8 0.00 0.00 0.00 85 1013.6
20240222112306 67 214 2.6 7.8 0.00 0.00 0.00 85 1013.5
20240222112204 67 195 3.5 8.7 0.00 0.00 0.00 85 1013.5
20240222112104 67 186 5.2 8.7 0.00 0.00 0.00 85 1013.5
20240222112003 67 183 6.1 9.6 0.00 0.00 0.00 85 1013.4
20240222111902 67 176 5.2 9.6 0.00 0.00 0.00 85 1013.4
20240222111802 67 178 4.3 9.6 0.00 0.00 0.00 85 1013.4
20240222111703 67 186 3.5 9.6 0.00 0.00 0.00 85 1013.3
20240222111603 67 172 3.5 9.6 0.00 0.00 0.00 85 1013.2
20240222111503 67 183 4.3 9.6 0.00 0.00 0.00 85 1013.3
20240222111403 67 188 4.3 9.6 0.00 0.00 0.00 85 1013.1
20240222111304 67 186 5.2 9.6 0.00 0.00 0.00 85 1013.1
20240222111202 67 186 6.1 9.6 0.00 0.00 0.00 85 1013.1
20240222111103 67 186 7.8 9.6 0.00 0.00 0.00 85 1013.1
20240222111004 67 155 6.1 9.6 0.00 0.00 0.00 85 1013.1
20240222110902 67 185 5.2 9.6 0.00 0.00 0.00 85 1013.1
20240222110802 67 176 5.2 9.6 0.00 0.00 0.00 85 1013.1
20240222110702 67 197 4.3 9.6 0.00 0.00 0.00 85 1013.2
20240222110602 67 196 4.3 9.6 0.00 0.00 0.00 85 1013.2
20240222110502 67 183 6.1 9.6 0.00 0.00 0.00 85 1013.1
20240222110403 67 188 6.1 9.6 0.00 0.00 0.00 85 1013.1
20240222110302 67 172 6.1 9.6 0.00 0.00 0.00 85 1013.2
20240222110202 67 213 7.0 9.6 0.00 0.00 0.00 85 1013.2
20240222110102 67 206 7.0 9.6 0.00 0.00 0.00 85 1013.1
20240222110004 67 178 6.1 9.6 0.00 0.00 0.00 85 1013.1
20240222105902 67 188 6.1 8.7 0.00 0.00 0.00 85 1013.1
20240222105802 67 203 6.1 8.7 0.00 0.00 0.00 85 1013.1
20240222105703 67 180 5.2 7.8 0.00 0.00 0.00 85 1013.1
20240222105602 67 188 5.2 7.8 0.00 0.00 0.00 85 1013.2
20240222105504 67 206 5.2 8.7 0.00 0.00 0.00 85 1013.2
20240222105403 67 185 4.3 8.7 0.00 0.00 0.00 85 1013.2
20240222105306 67 206 4.3 8.7 0.00 0.00 0.00 85 1013.2
20240222105202 67 154 4.3 8.7 0.00 0.00 0.00 85 1013.2
20240222105101 67 195 3.5 8.7 0.00 0.00 0.00 85 1013.2
20240222105004 67 195 2.6 9.6 0.00 0.00 0.00 85 1013.3
20240222104903 67 186 4.3 9.6 0.00 0.00 0.00 85 1013.2
20240222104802 67 186 5.2 9.6 0.00 0.00 0.00 85 1013.1
20240222104703 67 210 5.2 9.6 0.00 0.00 0.00 85 1013.1
20240222104602 67 182 5.2 9.6 0.00 0.00 0.00 85 1013.2
20240222104502 67 190 6.1 9.6 0.00 0.00 0.00 85 1013.2
20240222104402 67 193 5.2 9.6 0.00 0.00 0.00 85 1013.1
20240222104302 67 192 5.2 11.3 0.00 0.00 0.00 85 1013.2
20240222104201 67 204 6.1 11.3 0.00 0.00 0.00 85 1013.1
20240222104102 67 180 6.1 11.3 0.00 0.00 0.00 85 1013.1
20240222104003 67 183 6.1 11.3 0.00 0.00 0.00 85 1013.0
20240222103902 67 182 6.1 11.3 0.00 0.00 0.00 85 1013.0
20240222103804 67 169 5.2 11.3 0.00 0.00 0.00 85 1013.1
20240222103702 67 185 5.2 11.3 0.00 0.00 0.00 85 1013.1
20240222103602 67 195 6.1 11.3 0.00 0.00 0.00 85 1013.1
20240222103502 67 189 6.1 11.3 0.00 0.00 0.00 85 1013.1
20240222103402 67 214 5.2 11.3 0.00 0.00 0.00 85 1013.1
20240222103303 67 196 5.2 10.4 0.00 0.00 0.00 85 1013.2
20240222103202 67 188 6.1 9.6 0.00 0.00 0.00 85 1013.2
20240222103102 67 172 6.1 10.4 0.00 0.00 0.00 85 1013.1
20240222103002 67 185 5.2 10.4 0.00 0.00 0.00 85 1013.1
20240222102903 67 189 4.3 10.4 0.00 0.00 0.00 85 1013.1
20240222102802 67 200 4.3 10.4 0.00 0.00 0.00 85 1012.9
20240222102702 67 193 5.2 10.4 0.00 0.00 0.00 85 1012.9
20240222102603 67 195 5.2 10.4 0.00 0.00 0.00 85 1012.8
20240222102503 67 206 5.2 10.4 0.00 0.00 0.00 85 1012.8
20240222102401 67 179 5.2 10.4 0.00 0.00 0.00 85 1012.9
20240222102305 67 200 6.1 11.3 0.00 0.00 0.00 85 1012.8
20240222102202 67 192 6.1 11.3 0.00 0.00 0.00 85 1012.8
20240222102102 67 180 6.1 11.3 0.00 0.00 0.00 85 1012.8
20240222102002 67 180 7.0 11.3 0.00 0.00 0.00 85 1012.8
20240222101902 67 204 7.0 11.3 0.00 0.00 0.00 85 1012.9
20240222101802 67 210 6.1 11.3 0.00 0.00 0.00 85 1012.8
20240222101702 67 193 6.1 13.0 0.00 0.00 0.00 85 1012.9
20240222101603 67 188 7.0 13.0 0.00 0.00 0.00 85 1012.9
20240222101502 67 193 7.8 13.0 0.00 0.00 0.00 85 1012.8
20240222101401 67 212 7.8 13.0 0.00 0.00 0.00 85 1012.9
20240222101301 67 200 7.0 13.0 0.00 0.00 0.00 85 1013.0
20240222101203 67 209 7.8 13.0 0.00 0.00 0.00 85 1012.8
20240222101102 67 202 7.0 13.0 0.00 0.00 0.00 85 1012.9
20240222101002 67 179 7.0 13.0 0.00 0.00 0.00 85 1012.9
20240222100905 67 169 7.8 13.0 0.00 0.00 0.00 85 1012.9
20240222100802 67 190 7.8 13.0 0.00 0.00 0.00 85 1013.0
20240222100702 67 182 7.0 11.3 0.00 0.00 0.00 85 1013.0
20240222100604 67 182 6.1 11.3 0.00 0.00 0.00 85 1012.9
20240222100503 67 190 6.1 10.4 0.00 0.00 0.00 85 1013.0
20240222100401 67 182 6.1 10.4 0.00 0.00 0.00 85 1013.0
20240222100302 67 189 7.0 10.4 0.00 0.00 0.00 85 1013.1
20240222100203 67 207 7.0 11.3 0.00 0.00 0.00 85 1013.1
20240222100102 67 165 6.1 11.3 0.00 0.00 0.00 85 1013.1
20240222100003 67 182 5.2 11.3 0.00 0.00 0.00 85 1013.0
20240222095903 67 196 5.2 12.2 0.00 0.00 0.00 85 1013.1
20240222095802 67 182 5.2 12.2 0.00 0.00 0.00 85 1013.1
20240222095702 67 200 6.1 12.2 0.00 0.00 0.00 84 1013.1
20240222095602 67 203 6.1 12.2 0.00 0.00 0.00 84 1013.2
20240222095504 67 182 6.1 12.2 0.00 0.00 0.00 84 1013.1
20240222095403 67 186 6.1 12.2 0.00 0.00 0.00 84 1013.1
20240222095305 67 188 7.0 12.2 0.00 0.00 0.00 84 1013.1
20240222095203 67 195 7.0 12.2 0.00 0.00 0.00 84 1013.1
20240222095102 67 200 8.7 13.9 0.00 0.00 0.00 84 1013.1
20240222095002 67 188 8.7 13.9 0.00 0.00 0.00 84 1013.2
20240222094903 67 179 7.8 13.9 0.00 0.00 0.00 84 1013.1
20240222094803 67 221 7.0 13.9 0.00 0.00 0.00 84 1013.1
20240222094702 67 212 7.8 13.9 0.00 0.00 0.00 84 1013.1
20240222094602 67 199 7.8 13.9 0.00 0.00 0.00 84 1013.2
20240222094501 67 197 7.0 13.9 0.00 0.00 0.00 84 1013.2
20240222094403 67 193 7.0 13.9 0.00 0.00 0.00 84 1013.2
20240222094302 67 195 8.7 13.9 0.00 0.00 0.00 84 1013.3
20240222094203 67 193 8.7 13.9 0.00 0.00 0.00 84 1013.2
20240222094102 67 179 6.1 13.0 0.00 0.00 0.00 84 1013.1
20240222094003 67 193 5.2 13.0 0.00 0.00 0.00 84 1013.1
20240222093903 67 203 6.1 13.9 0.00 0.00 0.00 84 1013.1
20240222093802 67 206 7.0 13.9 0.00 0.00 0.00 84 1013.1
20240222093702 67 195 7.8 13.9 0.00 0.00 0.00 84 1013.1
20240222093602 67 180 7.8 13.9 0.00 0.00 0.00 84 1013.1
20240222093503 67 172 8.7 13.9 0.00 0.00 0.00 84 1013.2
20240222093402 67 183 7.8 13.9 0.00 0.00 0.00 84 1013.2
20240222093302 67 179 7.0 15.6 0.00 0.00 0.00 84 1013.1
20240222093203 67 182 8.7 15.6 0.00 0.00 0.00 84 1013.3
20240222093103 67 192 9.6 15.6 0.00 0.00 0.00 84 1013.3
20240222093002 67 190 9.6 15.6 0.00 0.00 0.00 84 1013.4
20240222092903 67 206 9.6 15.6 0.00 0.00 0.00 84 1013.4
20240222092803 67 189 7.8 15.6 0.00 0.00 0.00 84 1013.4
20240222092702 67 199 9.6 16.5 0.00 0.00 0.00 84 1013.5
20240222092603 67 182 9.6 17.4 0.00 0.00 0.00 84 1013.4
20240222092504 67 178 10.4 17.4 0.00 0.00 0.00 84 1013.4
20240222092402 67 190 11.3 18.2 0.00 0.00 0.00 83 1013.3
20240222092305 67 189 8.7 18.2 0.00 0.00 0.00 83 1013.4
20240222092202 67 180 8.7 18.2 0.00 0.00 0.00 83 1013.3
20240222092104 67 188 7.8 18.2 0.00 0.00 0.00 83 1013.4
20240222092003 67 207 7.0 18.2 0.00 0.00 0.00 83 1013.3
20240222091902 67 188 8.7 18.2 0.00 0.00 0.00 83 1013.4
20240222091804 67 197 11.3 18.2 0.00 0.00 0.00 83 1013.4
20240222091702 67 178 11.3 18.2 0.00 0.00 0.00 83 1013.4
20240222091601 67 158 11.3 18.2 0.00 0.00 0.00 83 1013.3
20240222091503 67 180 11.3 18.2 0.00 0.00 0.00 83 1013.4
20240222091402 67 185 8.7 18.2 0.00 0.00 0.00 83 1013.4
20240222091302 67 186 7.0 18.2 0.00 0.00 0.00 83 1013.5
20240222091202 67 197 9.6 18.2 0.00 0.00 0.00 83 1013.5
20240222091103 67 189 12.2 18.2 0.00 0.00 0.00 83 1013.4
20240222091002 67 169 10.4 18.2 0.00 0.00 0.00 83 1013.5
20240222090901 67 161 9.6 15.6 0.00 0.00 0.00 83 1013.5
20240222090803 67 193 11.3 15.6 0.00 0.00 0.00 83 1013.5
20240222090703 67 190 9.6 15.6 0.00 0.00 0.00 83 1013.5
20240222090602 67 192 7.8 14.8 0.00 0.00 0.00 83 1013.7
20240222090502 67 183 8.7 14.8 0.00 0.00 0.00 83 1013.8
20240222090403 67 206 9.6 15.6 0.00 0.00 0.00 83 1013.8
20240222090302 67 186 8.7 15.6 0.00 0.00 0.00 83 1013.9
20240222090201 67 182 7.8 15.6 0.00 0.00 0.00 83 1013.8
20240222090103 67 182 9.6 15.6 0.00 0.00 0.00 83 1013.9
20240222090005 67 204 10.4 15.6 0.00 0.00 0.00 83 1013.9
20240222085902 67 199 9.6 15.6 0.00 0.00 0.00 83 1013.8
20240222085802 67 179 9.6 15.6 0.00 0.00 0.00 83 1013.9
20240222085703 67 193 9.6 15.6 0.00 0.00 0.00 83 1013.8
20240222085603 67 175 9.6 15.6 0.00 0.00 0.00 83 1013.8
20240222085502 67 182 9.6 15.6 0.00 0.00 0.00 83 1013.8
20240222085402 67 192 7.0 14.8 0.00 0.00 0.00 83 1013.8
20240222085305 67 186 7.8 14.8 0.00 0.00 0.00 83 1013.9
20240222085202 67 202 10.4 14.8 0.00 0.00 0.00 83 1013.9
20240222085104 67 185 10.4 14.8 0.00 0.00 0.00 83 1013.9
20240222085003 67 175 9.6 14.8 0.00 0.00 0.00 83 1013.9
20240222084902 67 158 8.7 14.8 0.00 0.00 0.00 83 1013.8
20240222084802 67 195 7.8 12.2 0.00 0.00 0.00 83 1014.0
20240222084703 67 188 7.8 12.2 0.00 0.00 0.00 83 1013.9
20240222084602 67 169 8.7 12.2 0.00 0.00 0.00 83 1014.0
20240222084504 67 169 8.7 12.2 0.00 0.00 0.00 83 1014.1
20240222084402 67 173 8.7 12.2 0.00 0.00 0.00 83 1014.1
20240222084302 67 199 8.7 12.2 0.00 0.00 0.00 82 1014.1
20240222084203 67 188 7.8 12.2 0.00 0.00 0.00 82 1014.1
20240222084103 67 183 7.8 12.2 0.00 0.00 0.00 82 1014.2
20240222084003 67 185 7.8 12.2 0.00 0.00 0.00 82 1014.2
20240222083901 67 186 7.0 12.2 0.00 0.00 0.00 82 1014.2
20240222083802 67 178 7.0 12.2 0.00 0.00 0.00 82 1014.2
20240222083704 67 197 7.8 12.2 0.00 0.00 0.00 82 1014.2
20240222083603 67 186 8.7 15.6 0.00 0.00 0.00 82 1014.2
20240222083502 67 182 8.7 15.6 0.00 0.00 0.00 82 1014.2
20240222083401 67 199 8.7 15.6 0.00 0.00 0.00 82 1014.2
20240222083302 67 189 9.6 15.6 0.00 0.00 0.00 82 1014.3
20240222083202 67 195 8.7 15.6 0.00 0.00 0.00 82 1014.4
20240222083102 67 207 7.0 15.6 0.00 0.00 0.00 82 1014.3
20240222083004 67 169 7.0 17.4 0.00 0.00 0.00 82 1014.3
20240222082902 67 197 7.8 17.4 0.00 0.00 0.00 82 1014.4
20240222082802 67 161 9.6 17.4 0.00 0.00 0.00 82 1014.4
20240222082704 67 182 9.6 17.4 0.00 0.00 0.00 82 1014.3
20240222082603 67 189 9.6 17.4 0.00 0.00 0.00 82 1014.4
20240222082502 67 185 11.3 17.4 0.00 0.00 0.00 82 1014.4
20240222082403 67 195 9.6 17.4 0.00 0.00 0.00 82 1014.4
20240222082305 67 200 8.7 17.4 0.00 0.00 0.00 82 1014.4
20240222082202 67 179 9.6 17.4 0.00 0.00 0.00 82 1014.4
20240222082102 67 185 7.8 17.4 0.00 0.00 0.00 82 1014.5
20240222082003 67 209 7.0 14.8 0.00 0.00 0.00 82 1014.5
20240222081902 67 179 7.8 14.8 0.00 0.00 0.00 82 1014.4
20240222081801 67 186 9.6 14.8 0.00 0.00 0.00 82 1014.4
20240222081702 67 203 10.4 14.8 0.00 0.00 0.00 82 1014.4
20240222081602 67 176 9.6 14.8 0.00 0.00 0.00 82 1014.4
20240222081502 67 183 7.8 16.5 0.00 0.00 0.00 82 1014.4
20240222081403 67 188 8.7 16.5 0.00 0.00 0.00 82 1014.4
20240222081301 67 228 10.4 16.5 0.00 0.00 0.00 82 1014.3
20240222081202 67 185 9.6 17.4 0.00 0.00 0.00 82 1014.3
20240222081102 67 190 7.8 17.4 0.00 0.00 0.00 82 1014.3
20240222081004 67 180 7.8 17.4 0.00 0.00 0.00 82 1014.4
20240222080902 67 190 7.8 17.4 0.00 0.00 0.00 82 1014.4
20240222080804 67 186 8.7 17.4 0.00 0.00 0.00 82 1014.3
20240222080703 67 189 10.4 17.4 0.00 0.00 0.00 82 1014.3
20240222080604 67 182 10.4 17.4 0.00 0.00 0.00 82 1014.3
20240222080502 67 189 9.6 17.4 0.00 0.00 0.00 82 1014.4
20240222080401 67 199 12.2 17.4 0.00 0.00 0.00 82 1014.3
20240222080303 67 182 12.2 17.4 0.00 0.00 0.00 82 1014.4
20240222080202 67 179 8.7 16.5 0.00 0.00 0.00 82 1014.4
20240222080102 67 176 7.8 14.8 0.00 0.00 0.00 82 1014.5
20240222080002 67 197 8.7 14.8 0.00 0.00 0.00 82 1014.5
20240222075902 67 189 9.6 14.8 0.00 0.00 0.00 82 1014.5
20240222075802 67 203 10.4 14.8 0.00 0.00 0.00 82 1014.5
20240222075702 67 180 9.6 14.8 0.00 0.00 0.00 82 1014.6
20240222075604 67 172 8.7 16.5 0.00 0.00 0.00 82 1014.5
20240222075504 67 155 10.4 16.5 0.00 0.00 0.00 82 1014.6
20240222075401 67 182 8.7 16.5 0.00 0.00 0.00 82 1014.6
20240222075305 67 204 7.8 16.5 0.00 0.00 0.00 82 1014.6
20240222075202 67 161 8.7 16.5 0.00 0.00 0.00 82 1014.7
20240222075102 67 217 9.6 16.5 0.00 0.00 0.00 82 1014.7
20240222075003 67 199 8.7 16.5 0.00 0.00 0.00 82 1014.6
20240222074903 67 207 7.8 16.5 0.00 0.00 0.00 81 1014.7
20240222074802 67 212 7.8 16.5 0.00 0.00 0.00 81 1014.7
20240222074704 67 185 9.6 16.5 0.00 0.00 0.00 82 1014.7
20240222074603 67 202 9.6 16.5 0.00 0.00 0.00 81 1014.7
20240222074503 67 171 7.8 16.5 0.00 0.00 0.00 81 1014.6
20240222074402 67 199 9.6 16.5 0.00 0.00 0.00 81 1014.7
20240222074302 67 185 11.3 16.5 0.00 0.00 0.00 82 1014.6
20240222074202 67 189 10.4 16.5 0.00 0.00 0.00 81 1014.7
20240222074102 67 166 7.8 16.5 0.00 0.00 0.00 81 1014.6
20240222074003 67 168 9.6 16.5 0.00 0.00 0.00 81 1014.7
20240222073903 67 210 11.3 16.5 0.00 0.00 0.00 81 1014.7
20240222073802 67 179 11.3 16.5 0.00 0.00 0.00 81 1014.6
20240222073701 67 179 10.4 14.8 0.00 0.00 0.00 81 1014.7
20240222073601 67 188 10.4 15.6 0.00 0.00 0.00 81 1014.7
20240222073502 67 179 8.7 15.6 0.00 0.00 0.00 81 1014.7
20240222073402 67 182 9.6 15.6 0.00 0.00 0.00 81 1014.8
20240222073303 67 203 9.6 15.6 0.00 0.00 0.00 81 1014.8
20240222073202 67 168 9.6 15.6 0.00 0.00 0.00 81 1014.8
20240222073102 67 206 10.4 15.6 0.00 0.00 0.00 81 1014.8
20240222073002 67 180 9.6 15.6 0.00 0.00 0.00 81 1014.8
20240222072904 67 188 9.6 15.6 0.00 0.00 0.00 81 1014.8
20240222072802 67 158 9.6 15.6 0.00 0.00 0.00 81 1014.9
20240222072702 67 183 9.6 15.6 0.00 0.00 0.00 81 1014.8
20240222072603 67 175 10.4 16.5 0.00 0.00 0.00 81 1014.9
20240222072503 67 189 10.4 16.5 0.00 0.00 0.00 81 1014.9
20240222072402 67 193 9.6 16.5 0.00 0.00 0.00 81 1014.8
20240222072305 67 189 9.6 16.5 0.00 0.00 0.00 81 1014.9
20240222072203 67 169 9.6 16.5 0.00 0.00 0.00 81 1014.9
20240222072102 67 199 10.4 16.5 0.00 0.00 0.00 81 1014.9
20240222072002 67 166 9.6 16.5 0.00 0.00 0.00 81 1014.9
20240222071903 67 193 9.6 16.5 0.00 0.00 0.00 81 1014.9
20240222071802 67 180 9.6 16.5 0.00 0.00 0.00 81 1015.0
20240222071703 67 173 11.3 16.5 0.00 0.00 0.00 81 1015.0
20240222071603 67 188 11.3 16.5 0.00 0.00 0.00 80 1014.9
20240222071503 67 203 10.4 16.5 0.00 0.00 0.00 80 1014.9
20240222071402 67 197 9.6 16.5 0.00 0.00 0.00 80 1015.0
20240222071302 67 179 9.6 20.0 0.00 0.00 0.00 80 1014.9
20240222071201 67 197 9.6 20.0 0.00 0.00 0.00 80 1015.0
20240222071102 67 185 8.7 20.0 0.00 0.00 0.00 80 1015.0
20240222071002 67 195 9.6 20.0 0.00 0.00 0.00 80 1015.0
20240222070902 67 180 10.4 20.0 0.00 0.00 0.00 80 1015.0
20240222070804 67 197 11.3 20.0 0.00 0.00 0.00 80 1015.1
20240222070702 67 188 13.0 20.0 0.00 0.00 0.00 80 1015.1
20240222070602 67 203 11.3 20.0 0.00 0.00 0.00 80 1015.0
20240222070504 67 166 11.3 20.0 0.00 0.00 0.00 80 1015.0
20240222070402 67 190 10.4 20.0 0.00 0.00 0.00 80 1015.1
20240222070301 67 179 7.8 16.5 0.00 0.00 0.00 80 1015.1
20240222070202 67 182 7.8 16.5 0.00 0.00 0.00 80 1015.1
20240222070103 67 173 7.8 16.5 0.00 0.00 0.00 80 1015.1
20240222070002 67 172 9.6 16.5 0.00 0.00 0.00 80 1015.1
20240222065902 67 175 11.3 16.5 0.00 0.00 0.00 80 1015.1
20240222065803 67 161 8.7 16.5 0.00 0.00 0.00 80 1015.1
20240222065703 67 172 6.1 14.8 0.00 0.00 0.00 80 1015.1
20240222065603 67 168 7.0 14.8 0.00 0.00 0.00 80 1015.1
20240222065503 67 173 7.0 14.8 0.00 0.00 0.00 80 1015.2
20240222065403 67 179 8.7 14.8 0.00 0.00 0.00 80 1015.1
20240222065305 67 182 8.7 14.8 0.00 0.00 0.00 80 1015.2
20240222065202 67 197 7.8 14.8 0.00 0.00 0.00 80 1015.2
20240222065103 67 186 8.7 14.8 0.00 0.00 0.00 80 1015.2
20240222065003 67 169 10.4 14.8 0.00 0.00 0.00 80 1015.2
20240222064901 67 230 11.3 14.8 0.00 0.00 0.00 80 1015.2
20240222064803 67 178 9.6 13.9 0.00 0.00 0.00 80 1015.2
20240222064702 67 172 9.6 13.9 0.00 0.00 0.00 80 1015.2
20240222064602 67 186 10.4 13.9 0.00 0.00 0.00 80 1015.3
20240222064503 67 169 8.7 13.9 0.00 0.00 0.00 80 1015.4
20240222064404 67 173 7.8 13.9 0.00 0.00 0.00 80 1015.4
20240222064302 67 180 7.8 13.9 0.00 0.00 0.00 79 1015.3
20240222064201 67 202 7.8 13.9 0.00 0.00 0.00 79 1015.4
20240222064103 67 166 7.0 13.9 0.00 0.00 0.00 79 1015.4
20240222064003 67 185 9.6 15.6 0.00 0.00 0.00 79 1015.4
20240222063903 67 190 9.6 15.6 0.00 0.00 0.00 79 1015.3
20240222063802 67 180 8.7 15.6 0.00 0.00 0.00 79 1015.4
20240222063702 67 186 7.8 15.6 0.00 0.00 0.00 79 1015.3
20240222063602 67 193 7.0 15.6 0.00 0.00 0.00 79 1015.3
20240222063502 67 185 8.7 15.6 0.00 0.00 0.00 79 1015.3
20240222063404 67 182 9.6 15.6 0.00 0.00 0.00 79 1015.3
20240222063301 67 183 8.7 15.6 0.00 0.00 0.00 79 1015.3
20240222063201 67 155 10.4 16.5 0.00 0.00 0.00 79 1015.4
20240222063103 67 189 10.4 16.5 0.00 0.00 0.00 79 1015.4
20240222063003 67 199 8.7 16.5 0.00 0.00 0.00 79 1015.4
20240222062902 67 172 7.8 16.5 0.00 0.00 0.00 80 1015.3
20240222062802 67 183 9.6 16.5 0.00 0.00 0.00 80 1015.3
20240222062703 67 188 8.7 16.5 0.00 0.00 0.00 80 1015.2
20240222062603 67 176 7.8 16.5 0.00 0.00 0.00 80 1015.2
20240222062502 67 169 9.6 16.5 0.00 0.00 0.00 80 1015.2
20240222062403 67 173 12.2 16.5 0.00 0.00 0.00 80 1015.3
20240222062305 67 165 10.4 16.5 0.00 0.00 0.00 80 1015.3
20240222062202 67 164 9.6 13.9 0.00 0.00 0.00 80 1015.3
20240222062102 67 175 9.6 13.0 0.00 0.00 0.00 80 1015.2
20240222062003 67 165 8.7 13.0 0.00 0.00 0.00 80 1015.3
20240222061903 67 168 7.8 14.8 0.00 0.00 0.00 80 1015.4
20240222061802 67 183 9.6 14.8 0.00 0.00 0.00 80 1015.4
20240222061703 67 199 8.7 14.8 0.00 0.00 0.00 80 1015.4
20240222061602 67 175 7.0 14.8 0.00 0.00 0.00 80 1015.5
20240222061501 67 166 6.1 14.8 0.00 0.00 0.00 80 1015.6
20240222061402 67 185 6.1 14.8 0.00 0.00 0.00 80 1015.7
20240222061304 67 172 7.8 14.8 0.00 0.00 0.00 80 1015.7
20240222061203 67 172 7.8 14.8 0.00 0.00 0.00 80 1015.7
20240222061102 67 188 9.6 14.8 0.00 0.00 0.00 80 1015.7
20240222061003 67 196 8.7 14.8 0.00 0.00 0.00 80 1015.7
20240222060903 67 171 7.0 11.3 0.00 0.00 0.00 80 1015.7
20240222060802 67 182 7.0 11.3 0.00 0.00 0.00 80 1015.7
20240222060704 67 186 7.8 11.3 0.00 0.00 0.00 80 1015.7
20240222060602 67 195 7.0 13.0 0.00 0.00 0.00 80 1015.7
20240222060502 67 179 7.0 13.0 0.00 0.00 0.00 80 1015.7
20240222060402 67 186 7.0 13.9 0.00 0.00 0.00 80 1015.7
20240222060303 67 165 6.1 13.9 0.00 0.00 0.00 80 1015.6
20240222060202 67 197 7.8 13.9 0.00 0.00 0.00 80 1015.7
20240222060102 67 183 7.8 13.9 0.00 0.00 0.00 80 1015.7
20240222060003 67 188 7.0 13.9 0.00 0.00 0.00 80 1015.7
20240222055903 67 206 7.8 13.9 0.00 0.00 0.00 80 1015.8
20240222055803 67 192 9.6 13.9 0.00 0.00 0.00 80 1015.8
20240222055702 67 176 9.6 13.9 0.00 0.00 0.00 80 1015.8
20240222055604 67 197 9.6 13.9 0.00 0.00 0.00 80 1015.9
20240222055502 67 169 10.4 13.9 0.00 0.00 0.00 80 1015.8
20240222055402 67 195 9.6 13.9 0.00 0.00 0.00 80 1015.7
20240222055305 67 183 7.0 13.0 0.00 0.00 0.00 80 1015.8
20240222055202 67 200 7.0 14.8 0.00 0.00 0.00 80 1015.9
20240222055101 67 175 7.0 14.8 0.00 0.00 0.00 80 1015.8
20240222055002 67 197 7.0 14.8 0.00 0.00 0.00 80 1015.8
20240222054902 67 196 7.8 14.8 0.00 0.00 0.00 80 1015.8
20240222054802 67 192 7.8 14.8 0.00 0.00 0.00 81 1015.8
20240222054701 67 171 7.8 14.8 0.00 0.00 0.00 81 1015.9
20240222054603 67 173 7.8 14.8 0.00 0.00 0.00 81 1015.9
20240222054502 67 176 7.8 14.8 0.00 0.00 0.00 81 1015.9
20240222054402 67 185 8.7 14.8 0.00 0.00 0.00 81 1015.9
20240222054303 67 171 7.8 14.8 0.00 0.00 0.00 81 1016.0
20240222054203 67 176 7.8 14.8 0.00 0.00 0.00 81 1016.0
20240222054102 67 200 8.7 14.8 0.00 0.00 0.00 81 1016.0
20240222054002 67 173 9.6 14.8 0.00 0.00 0.00 81 1015.9
20240222053903 67 178 9.6 14.8 0.00 0.00 0.00 81 1015.9
20240222053802 67 158 8.7 14.8 0.00 0.00 0.00 81 1016.0
20240222053701 67 173 7.8 14.8 0.00 0.00 0.00 81 1015.9
20240222053603 67 152 9.6 14.8 0.00 0.00 0.00 81 1016.0
20240222053503 67 190 9.6 14.8 0.00 0.00 0.00 81 1015.9
20240222053402 67 175 8.7 14.8 0.00 0.00 0.00 81 1015.9
20240222053301 67 168 8.7 13.9 0.00 0.00 0.00 81 1015.9
20240222053204 67 190 8.7 13.9 0.00 0.00 0.00 81 1015.9
20240222053102 67 151 7.0 13.9 0.00 0.00 0.00 81 1015.9
20240222053003 67 185 7.0 13.9 0.00 0.00 0.00 81 1015.9
20240222052904 67 172 7.8 13.9 0.00 0.00 0.00 82 1015.9
20240222052802 67 176 8.7 13.9 0.00 0.00 0.00 82 1016.0
20240222052702 67 179 9.6 13.9 0.00 0.00 0.00 82 1015.9
20240222052603 67 176 8.7 13.9 0.00 0.00 0.00 82 1016.0
20240222052504 67 155 8.7 13.9 0.00 0.00 0.00 82 1016.0
20240222052402 67 172 8.7 13.9 0.00 0.00 0.00 82 1016.1
20240222052305 67 180 9.6 13.9 0.00 0.00 0.00 82 1016.0
20240222052203 67 173 8.7 13.9 0.00 0.00 0.00 82 1016.0
20240222052102 67 195 8.7 13.9 0.00 0.00 0.00 82 1016.0
20240222052002 67 179 7.0 13.9 0.00 0.00 0.00 82 1016.0
20240222051902 67 158 7.8 13.9 0.00 0.00 0.00 82 1016.0
20240222051803 67 188 8.7 13.9 0.00 0.00 0.00 82 1016.0
20240222051702 67 171 7.0 13.9 0.00 0.00 0.00 82 1015.9
20240222051603 67 179 7.8 14.8 0.00 0.00 0.00 82 1015.9
20240222051502 67 190 7.8 14.8 0.00 0.00 0.00 82 1015.9
20240222051401 67 168 8.7 14.8 0.00 0.00 0.00 82 1015.9
20240222051302 67 180 8.7 14.8 0.00 0.00 0.00 82 1015.9
20240222051204 67 196 8.7 14.8 0.00 0.00 0.00 82 1016.0
20240222051102 67 204 9.6 15.6 0.00 0.00 0.00 82 1016.0
20240222051002 67 175 9.6 15.6 0.00 0.00 0.00 82 1016.0
20240222050902 67 183 8.7 15.6 0.00 0.00 0.00 82 1016.0
20240222050802 67 188 9.6 15.6 0.00 0.00 0.00 82 1015.9
20240222050702 67 182 9.6 15.6 0.00 0.00 0.00 82 1015.9
20240222050603 67 166 7.8 15.6 0.00 0.00 0.00 82 1015.9
20240222050503 67 190 7.8 15.6 0.00 0.00 0.00 82 1015.9
20240222050402 67 206 9.6 15.6 0.00 0.00 0.00 82 1015.9
20240222050303 67 175 11.3 15.6 0.00 0.00 0.00 82 1015.9
20240222050203 67 189 9.6 15.6 0.00 0.00 0.00 82 1015.9
20240222050103 67 166 7.8 13.9 0.00 0.00 0.00 82 1015.9
20240222050001 67 202 7.8 16.5 0.00 0.00 0.00 82 1015.8
20240222045902 67 165 7.0 16.5 0.00 0.00 0.00 82 1015.7
20240222045802 67 179 8.7 16.5 0.00 0.00 0.00 82 1015.6
20240222045702 67 189 9.6 16.5 0.00 0.00 0.00 82 1015.6
20240222045602 67 168 8.7 16.5 0.00 0.00 0.00 82 1015.6
20240222045503 67 204 7.8 16.5 0.00 0.00 0.00 82 1015.6
20240222045402 67 197 8.7 16.5 0.00 0.00 0.00 82 1015.6
20240222045305 67 183 9.6 16.5 0.00 0.00 0.00 82 1015.6
20240222045202 67 175 11.3 16.5 0.00 0.00 0.00 82 1015.6
20240222045102 67 155 9.6 16.5 0.00 0.00 0.00 82 1015.6
20240222045002 67 161 8.7 16.5 0.00 0.00 0.00 82 1015.6
20240222044902 67 203 10.4 16.5 0.00 0.00 0.00 82 1015.5
20240222044803 67 180 8.7 16.5 0.00 0.00 0.00 82 1015.5
20240222044703 67 207 7.0 16.5 0.00 0.00 0.00 82 1015.4
20240222044603 67 172 6.1 16.5 0.00 0.00 0.00 82 1015.4
20240222044501 67 168 7.0 16.5 0.00 0.00 0.00 82 1015.4
20240222044402 67 157 7.8 16.5 0.00 0.00 0.00 82 1015.3
20240222044302 67 190 11.3 16.5 0.00 0.00 0.00 82 1015.3
20240222044202 67 173 11.3 16.5 0.00 0.00 0.00 82 1015.3
20240222044103 67 172 9.6 19.1 0.00 0.00 0.00 82 1015.2
20240222044002 67 186 7.8 19.1 0.00 0.00 0.00 82 1015.2
20240222043902 67 166 7.8 19.1 0.00 0.00 0.00 82 1015.2
20240222043803 67 178 8.7 19.1 0.00 0.00 0.00 82 1015.2
20240222043702 67 176 9.6 19.1 0.00 0.00 0.00 82 1015.1
20240222043604 67 171 9.6 19.1 0.00 0.00 0.00 82 1015.2
20240222043502 67 151 9.6 19.1 0.00 0.00 0.00 82 1015.1
20240222043402 67 148 10.4 20.9 0.00 0.00 0.00 82 1015.2
20240222043302 67 169 10.4 20.9 0.00 0.00 0.00 82 1015.2
20240222043203 67 161 9.6 20.9 0.00 0.00 0.00 82 1015.2
20240222043104 67 171 11.3 20.9 0.00 0.00 0.00 82 1015.2
20240222043003 67 169 12.2 20.9 0.00 0.00 0.00 82 1015.2
20240222042901 67 190 12.2 20.9 0.00 0.00 0.00 82 1015.2
20240222042802 67 204 10.4 20.9 0.00 0.00 0.00 82 1015.2
20240222042703 67 196 11.3 20.9 0.00 0.00 0.00 82 1015.3
20240222042602 67 180 13.0 20.9 0.00 0.00 0.00 82 1015.3
20240222042501 67 193 13.9 20.9 0.00 0.00 0.00 82 1015.3
20240222042402 67 196 11.3 20.0 0.00 0.00 0.00 82 1015.2
20240222042305 67 158 9.6 20.0 0.00 0.00 0.00 82 1015.3
20240222042203 67 161 9.6 20.0 0.00 0.00 0.00 82 1015.3
20240222042102 67 161 10.4 20.0 0.00 0.00 0.00 82 1015.4
20240222042003 67 203 10.4 20.0 0.00 0.00 0.00 82 1015.3
20240222041902 67 207 11.3 20.0 0.00 0.00 0.00 82 1015.3
20240222041802 67 161 13.0 20.0 0.00 0.00 0.00 82 1015.4
20240222041703 67 168 12.2 20.0 0.00 0.00 0.00 82 1015.3
20240222041604 67 179 10.4 20.0 0.00 0.00 0.00 82 1015.4
20240222041502 67 169 10.4 20.0 0.00 0.00 0.00 82 1015.4
20240222041402 67 173 12.2 20.0 0.00 0.00 0.00 82 1015.3
20240222041302 67 158 12.2 20.0 0.00 0.00 0.00 82 1015.3
20240222041203 67 152 9.6 20.0 0.00 0.00 0.00 82 1015.4
20240222041103 67 176 10.4 20.0 0.00 0.00 0.00 82 1015.4
20240222041004 67 175 11.3 20.0 0.00 0.00 0.00 82 1015.4
20240222040902 67 195 12.2 20.0 0.00 0.00 0.00 82 1015.4
20240222040802 67 171 13.0 20.0 0.00 0.00 0.00 82 1015.4
20240222040703 67 195 8.7 20.0 0.00 0.00 0.00 82 1015.5
20240222040602 67 179 8.7 20.0 0.00 0.00 0.00 82 1015.6
20240222040503 67 176 11.3 20.9 0.00 0.00 0.00 82 1015.5
20240222040403 67 173 11.3 20.9 0.00 0.00 0.00 82 1015.6
20240222040304 67 172 11.3 20.9 0.00 0.00 0.00 82 1015.6
20240222040201 67 188 9.6 20.9 0.00 0.00 0.00 82 1015.7
20240222040102 67 151 9.6 20.9 0.00 0.00 0.00 82 1015.7
20240222040005 67 149 12.2 20.9 0.00 0.00 0.00 82 1015.7
20240222035902 67 188 13.0 20.9 0.00 0.00 0.00 82 1015.7
20240222035803 67 158 14.8 25.2 0.00 0.00 0.00 82 1015.7
20240222035703 67 175 13.9 25.2 0.00 0.00 0.00 82 1015.7
20240222035602 67 203 11.3 25.2 0.00 0.00 0.00 82 1015.4
20240222035503 67 200 10.4 25.2 0.00 0.00 0.00 82 1015.6
20240222035403 67 148 11.3 25.2 0.00 0.00 0.00 82 1015.5
20240222035306 67 178 13.0 25.2 0.00 0.00 0.00 82 1015.4
20240222035201 67 188 12.2 25.2 0.00 0.00 0.00 82 1015.4
20240222035102 67 189 11.3 25.2 0.00 0.00 0.00 82 1015.3
20240222035005 67 137 13.9 25.2 0.00 0.00 0.00 82 1015.4
20240222034903 67 178 13.0 25.2 0.00 0.00 0.00 82 1015.3
20240222034802 68 176 8.7 22.6 0.00 0.00 0.00 82 1015.3
20240222034702 68 190 9.6 22.6 0.00 0.00 0.00 82 1015.4
20240222034603 68 178 11.3 22.6 0.00 0.00 0.00 82 1015.3
20240222034503 68 178 9.6 22.6 0.00 0.00 0.00 82 1015.4
20240222034402 68 199 10.4 22.6 0.00 0.00 0.00 81 1015.4
20240222034303 68 168 13.9 22.6 0.00 0.00 0.00 81 1015.4
20240222034202 68 179 13.9 22.6 0.00 0.00 0.00 81 1015.5
20240222034103 68 172 12.2 19.1 0.00 0.00 0.00 81 1015.6
20240222034003 68 196 12.2 19.1 0.00 0.00 0.00 81 1015.7
20240222033902 68 173 12.2 19.1 0.00 0.00 0.00 81 1015.7
20240222033802 68 166 12.2 19.1 0.00 0.00 0.00 81 1015.9
20240222033702 68 161 13.0 19.1 0.00 0.00 0.00 81 1016.0
20240222033602 68 168 12.2 19.1 0.00 0.00 0.00 81 1016.0
20240222033502 68 183 11.3 17.4 0.00 0.00 0.00 81 1016.0
20240222033401 68 175 11.3 17.4 0.00 0.00 0.00 81 1016.1
20240222033303 68 173 10.4 17.4 0.00 0.00 0.00 81 1016.2
20240222033202 68 166 9.6 17.4 0.00 0.00 0.00 80 1016.2
20240222033102 68 179 11.3 17.4 0.00 0.00 0.00 80 1016.2
20240222033002 68 169 13.0 17.4 0.00 0.00 0.00 80 1016.3
20240222032904 68 162 12.2 17.4 0.00 0.00 0.00 80 1016.3
20240222032802 68 144 11.3 17.4 0.00 0.00 0.00 80 1016.3
20240222032702 68 172 9.6 17.4 0.00 0.00 0.00 80 1016.5
20240222032603 68 171 9.6 16.5 0.00 0.00 0.00 80 1016.5
20240222032503 68 175 10.4 20.0 0.00 0.00 0.00 80 1016.5
20240222032402 68 172 9.6 20.0 0.00 0.00 0.00 80 1016.5
20240222032306 68 185 12.2 20.0 0.00 0.00 0.00 80 1016.6
20240222032203 68 161 13.0 20.0 0.00 0.00 0.00 80 1016.5
20240222032102 68 175 12.2 20.0 0.00 0.00 0.00 80 1016.6
20240222032002 68 202 12.2 20.0 0.00 0.00 0.00 80 1016.6
20240222031902 68 171 11.3 20.0 0.00 0.00 0.00 80 1016.7
20240222031801 68 145 10.4 20.0 0.00 0.00 0.00 80 1016.7
20240222031702 68 179 12.2 20.0 0.00 0.00 0.00 80 1016.7
20240222031605 68 188 14.8 20.0 0.00 0.00 0.00 80 1016.7
20240222031503 68 186 13.0 17.4 0.00 0.00 0.00 81 1016.7
20240222031401 68 169 11.3 17.4 0.00 0.00 0.00 81 1016.8
20240222031302 67 161 11.3 17.4 0.00 0.00 0.00 81 1016.8
20240222031202 67 169 11.3 17.4 0.00 0.00 0.00 81 1016.9
20240222031102 67 124 10.4 16.5 0.00 0.00 0.00 81 1016.9
20240222031001 67 165 11.3 16.5 0.00 0.00 0.00 81 1016.9
20240222030902 67 175 11.3 16.5 0.00 0.00 0.00 82 1016.9
20240222030802 67 157 10.4 16.5 0.00 0.00 0.00 82 1016.9
20240222030703 67 159 9.6 16.5 0.00 0.00 0.00 82 1016.8
20240222030602 67 159 8.7 13.9 0.00 0.00 0.00 82 1016.9
20240222030503 68 155 7.8 15.6 0.00 0.00 0.00 82 1016.9
20240222030402 68 155 7.0 15.6 0.00 0.00 0.00 82 1017.0
20240222030302 68 164 7.8 15.6 0.00 0.00 0.00 82 1017.0
20240222030203 68 171 8.7 15.6 0.00 0.00 0.00 82 1017.0
20240222030102 68 192 7.8 15.6 0.00 0.00 0.00 82 1016.8
20240222030002 68 161 7.8 15.6 0.00 0.00 0.00 82 1017.0
20240222025902 68 173 9.6 15.6 0.00 0.00 0.00 82 1017.0
20240222025802 68 185 9.6 15.6 0.00 0.00 0.00 82 1017.0
20240222025702 68 169 9.6 16.5 0.00 0.00 0.00 82 1017.0
20240222025602 68 155 9.6 20.0 0.00 0.00 0.00 82 1017.0
20240222025503 68 182 9.6 20.0 0.00 0.00 0.00 82 1017.0
20240222025402 68 183 7.8 20.0 0.00 0.00 0.00 82 1017.0
20240222025305 68 162 7.8 20.0 0.00 0.00 0.00 82 1016.9
20240222025203 68 173 7.8 20.0 0.00 0.00 0.00 82 1016.8
20240222025102 68 149 7.8 20.0 0.00 0.00 0.00 82 1016.8
20240222025003 68 175 8.7 20.0 0.00 0.00 0.00 82 1016.9
20240222024902 68 179 10.4 20.0 0.00 0.00 0.00 82 1016.9
20240222024804 68 175 11.3 20.0 0.00 0.00 0.00 82 1016.9
20240222024702 68 171 12.2 18.2 0.00 0.00 0.00 82 1016.8
20240222024602 68 176 11.3 16.5 0.00 0.00 0.00 81 1016.8
20240222024502 68 158 10.4 14.8 0.00 0.00 0.00 81 1016.8
20240222024403 68 149 11.3 14.8 0.00 0.00 0.00 81 1016.8
20240222024302 68 182 10.4 14.8 0.00 0.00 0.00 82 1016.9
20240222024203 68 203 7.8 13.0 0.00 0.00 0.00 82 1016.8
20240222024102 68 196 7.0 13.0 0.00 0.00 0.00 82 1016.9
20240222024002 68 168 7.8 13.9 0.00 0.00 0.00 82 1016.9
20240222023902 68 173 7.0 13.9 0.00 0.00 0.00 82 1016.9
20240222023802 68 137 7.0 13.9 0.00 0.00 0.00 82 1016.9
20240222023703 68 155 7.8 13.9 0.00 0.00 0.00 82 1016.9
20240222023602 68 168 7.8 13.9 0.00 0.00 0.00 82 1016.9
20240222023503 68 168 7.8 13.9 0.00 0.00 0.00 82 1016.8
20240222023402 68 172 7.8 13.9 0.00 0.00 0.00 82 1016.9
20240222023303 68 178 7.8 13.9 0.00 0.00 0.00 81 1016.8
20240222023202 68 166 8.7 13.9 0.00 0.00 0.00 81 1016.9
20240222023102 68 176 8.7 13.9 0.00 0.00 0.00 81 1016.8
20240222023003 68 178 7.8 13.0 0.00 0.00 0.00 81 1016.8
20240222022902 68 165 8.7 13.0 0.00 0.00 0.00 81 1016.8
20240222022804 68 155 9.6 13.9 0.00 0.00 0.00 81 1016.9
20240222022703 68 154 9.6 13.9 0.00 0.00 0.00 81 1016.9
20240222022602 68 190 8.7 13.9 0.00 0.00 0.00 81 1016.9
20240222022502 68 148 8.7 13.9 0.00 0.00 0.00 81 1017.0
20240222022402 68 172 8.7 13.9 0.00 0.00 0.00 81 1017.0
20240222022305 68 173 8.7 13.9 0.00 0.00 0.00 81 1017.0
20240222022202 68 182 7.8 13.9 0.00 0.00 0.00 81 1017.0
20240222022102 68 159 7.8 13.9 0.00 0.00 0.00 81 1017.0
20240222022004 68 217 9.6 14.8 0.00 0.00 0.00 81 1017.0
20240222021902 68 168 9.6 15.6 0.00 0.00 0.00 81 1017.0
20240222021803 68 166 8.7 15.6 0.00 0.00 0.00 81 1017.0
20240222021704 68 176 7.8 15.6 0.00 0.00 0.00 81 1017.0
20240222021603 68 168 7.8 15.6 0.00 0.00 0.00 81 1017.0
20240222021502 68 172 8.7 15.6 0.00 0.00 0.00 81 1017.0
20240222021403 68 192 9.6 15.6 0.00 0.00 0.00 81 1017.0
20240222021303 68 165 10.4 15.6 0.00 0.00 0.00 81 1017.0
20240222021201 68 178 10.4 15.6 0.00 0.00 0.00 81 1016.9
20240222021103 68 178 11.3 15.6 0.00 0.00 0.00 81 1016.9
20240222021003 68 178 10.4 15.6 0.00 0.00 0.00 81 1016.9
20240222020902 68 190 8.7 14.8 0.00 0.00 0.00 81 1017.0
20240222020802 68 179 9.6 15.6 0.00 0.00 0.00 81 1017.0
20240222020702 68 186 8.7 15.6 0.00 0.00 0.00 81 1017.1
20240222020602 68 162 7.8 15.6 0.00 0.00 0.00 81 1017.2
20240222020502 68 171 7.8 15.6 0.00 0.00 0.00 81 1017.3
20240222020403 68 151 7.0 15.6 0.00 0.00 0.00 81 1017.3
20240222020302 68 179 9.6 15.6 0.00 0.00 0.00 81 1017.5
20240222020202 68 179 9.6 15.6 0.00 0.00 0.00 81 1017.6
20240222020104 68 152 7.8 15.6 0.00 0.00 0.00 81 1017.5
20240222020003 68 183 10.4 15.6 0.00 0.00 0.00 81 1017.6
20240222015902 68 186 11.3 15.6 0.00 0.00 0.00 81 1017.6
20240222015803 68 183 8.7 15.6 0.00 0.00 0.00 81 1017.6
20240222015703 68 172 9.6 15.6 0.00 0.00 0.00 81 1017.6
20240222015602 68 175 10.4 16.5 0.00 0.00 0.00 81 1017.5
20240222015502 68 182 10.4 16.5 0.00 0.00 0.00 81 1017.6
20240222015403 68 176 8.7 16.5 0.00 0.00 0.00 81 1017.6
20240222015305 68 193 7.8 16.5 0.00 0.00 0.00 81 1017.6
20240222015202 68 188 8.7 16.5 0.00 0.00 0.00 81 1017.6
20240222015102 68 172 8.7 16.5 0.00 0.00 0.00 80 1017.6
20240222015003 68 166 9.6 16.5 0.00 0.00 0.00 80 1017.7
20240222014903 68 186 9.6 16.5 0.00 0.00 0.00 80 1017.6
20240222014803 68 173 10.4 16.5 0.00 0.00 0.00 80 1017.7
20240222014704 68 159 11.3 16.5 0.00 0.00 0.00 81 1017.5
20240222014602 68 155 10.4 15.6 0.00 0.00 0.00 80 1017.6
20240222014502 68 152 8.7 15.6 0.00 0.00 0.00 81 1017.6
20240222014403 68 166 7.8 15.6 0.00 0.00 0.00 80 1017.6
20240222014303 68 164 8.7 15.6 0.00 0.00 0.00 80 1017.5
20240222014203 68 179 9.6 15.6 0.00 0.00 0.00 80 1017.6
20240222014102 68 199 11.3 15.6 0.00 0.00 0.00 80 1017.5
20240222014003 68 182 9.6 15.6 0.00 0.00 0.00 80 1017.5
20240222013902 68 190 7.8 14.8 0.00 0.00 0.00 80 1017.6
20240222013802 68 164 8.7 14.8 0.00 0.00 0.00 80 1017.6
20240222013702 68 179 8.7 14.8 0.00 0.00 0.00 80 1017.6
20240222013603 68 157 7.8 14.8 0.00 0.00 0.00 80 1017.6
20240222013502 68 159 7.8 14.8 0.00 0.00 0.00 80 1017.7
20240222013402 68 171 7.8 14.8 0.00 0.00 0.00 80 1017.8
20240222013303 68 168 7.8 15.6 0.00 0.00 0.00 80 1017.8
20240222013202 68 161 8.7 15.6 0.00 0.00 0.00 80 1017.8
20240222013101 68 169 7.8 15.6 0.00 0.00 0.00 80 1017.8
20240222013003 68 188 7.8 15.6 0.00 0.00 0.00 80 1017.8
20240222012902 68 169 9.6 15.6 0.00 0.00 0.00 80 1017.8
20240222012803 68 173 10.4 15.6 0.00 0.00 0.00 80 1017.8
20240222012702 68 165 10.4 15.6 0.00 0.00 0.00 80 1017.8
20240222012603 68 206 8.7 15.6 0.00 0.00 0.00 80 1017.8
20240222012502 68 188 8.7 15.6 0.00 0.00 0.00 80 1017.8
20240222012402 68 182 9.6 15.6 0.00 0.00 0.00 80 1017.7
20240222012305 68 165 8.7 14.8 0.00 0.00 0.00 80 1017.9
20240222012203 68 158 8.7 14.8 0.00 0.00 0.00 80 1017.9
20240222012103 68 179 7.8 14.8 0.00 0.00 0.00 80 1018.0
20240222012003 68 164 7.0 14.8 0.00 0.00 0.00 80 1018.0
20240222011902 68 169 8.7 14.8 0.00 0.00 0.00 80 1017.9
20240222011802 68 183 8.7 14.8 0.00 0.00 0.00 80 1018.0
20240222011702 68 178 8.7 14.8 0.00 0.00 0.00 80 1018.0
20240222011603 69 161 9.6 14.8 0.00 0.00 0.00 79 1018.0
20240222011501 69 168 10.4 14.8 0.00 0.00 0.00 79 1018.0
20240222011401 69 166 9.6 14.8 0.00 0.00 0.00 79 1017.9
20240222011303 69 155 7.0 16.5 0.00 0.00 0.00 79 1018.0
20240222011202 69 202 7.8 16.5 0.00 0.00 0.00 80 1018.0
20240222011101 69 168 7.0 16.5 0.00 0.00 0.00 80 1018.0
20240222011002 69 175 6.1 16.5 0.00 0.00 0.00 79 1018.0
20240222010903 69 190 7.8 16.5 0.00 0.00 0.00 79 1018.0
20240222010802 69 196 7.8 16.5 0.00 0.00 0.00 79 1017.9
20240222010701 69 162 7.8 16.5 0.00 0.00 0.00 79 1018.0
20240222010603 69 230 9.6 16.5 0.00 0.00 0.00 79 1018.0
20240222010502 69 186 9.6 16.5 0.00 0.00 0.00 79 1018.0
20240222010402 69 178 9.6 16.5 0.00 0.00 0.00 79 1018.0
20240222010303 69 192 9.6 13.9 0.00 0.00 0.00 79 1017.9
20240222010202 69 173 8.7 13.0 0.00 0.00 0.00 79 1017.9
20240222010102 69 173 7.8 13.0 0.00 0.00 0.00 79 1017.9
20240222010002 69 172 7.8 13.0 0.00 0.00 0.00 79 1017.9
20240222005903 69 188 7.0 13.0 0.00 0.00 0.00 79 1017.8
20240222005802 69 180 7.0 13.0 0.00 0.00 0.00 79 1017.8
20240222005702 69 161 7.8 16.5 0.00 0.00 0.00 79 1017.8
20240222005604 69 176 9.6 16.5 0.00 0.00 0.00 79 1017.8
20240222005504 69 186 7.8 16.5 0.00 0.00 0.00 79 1017.8
20240222005402 69 158 6.1 16.5 0.00 0.00 0.00 79 1017.8
20240222005306 69 189 6.1 16.5 0.00 0.00 0.00 78 1017.8
20240222005202 69 195 7.0 16.5 0.00 0.00 0.00 78 1017.8
20240222005102 69 186 7.0 16.5 0.00 0.00 0.00 78 1017.8
20240222005002 69 173 8.7 16.5 0.00 0.00 0.00 78 1017.8
20240222004903 69 175 11.3 16.5 0.00 0.00 0.00 78 1017.7
20240222004802 69 175 10.4 16.5 0.00 0.00 0.00 78 1017.8
20240222004703 69 164 8.7 16.5 0.00 0.00 0.00 78 1017.7
20240222004601 69 166 9.6 16.5 0.00 0.00 0.00 78 1017.8
20240222004504 69 190 10.4 16.5 0.00 0.00 0.00 78 1017.8
20240222004402 69 183 10.4 16.5 0.00 0.00 0.00 78 1017.8
20240222004303 69 175 11.3 16.5 0.00 0.00 0.00 78 1017.7
20240222004203 69 158 11.3 16.5 0.00 0.00 0.00 78 1017.7
20240222004103 69 175 10.4 16.5 0.00 0.00 0.00 78 1017.7
20240222004004 69 165 8.7 16.5 0.00 0.00 0.00 78 1017.8
20240222003903 69 212 9.6 16.5 0.00 0.00 0.00 77 1017.8
20240222003803 69 176 11.3 16.5 0.00 0.00 0.00 77 1017.7
20240222003701 69 188 10.4 16.5 0.00 0.00 0.00 77 1017.9
20240222003602 69 179 7.0 14.8 0.00 0.00 0.00 77 1017.8
20240222003505 69 180 6.1 14.8 0.00 0.00 0.00 77 1017.9
20240222003402 70 178 7.0 14.8 0.00 0.00 0.00 77 1017.8
20240222003301 70 197 7.0 14.8 0.00 0.00 0.00 77 1017.7
20240222003203 70 178 7.8 14.8 0.00 0.00 0.00 76 1017.8
20240222003102 70 169 9.6 14.8 0.00 0.00 0.00 76 1017.8
20240222003002 70 172 11.3 14.8 0.00 0.00 0.00 76 1017.8
20240222002902 70 171 11.3 14.8 0.00 0.00 0.00 76 1017.8
20240222002802 70 190 9.6 14.8 0.00 0.00 0.00 76 1017.8
20240222002701 70 165 9.6 14.8 0.00 0.00 0.00 76 1017.9
20240222002602 70 185 9.6 14.8 0.00 0.00 0.00 76 1017.9
20240222002505 70 175 10.4 14.8 0.00 0.00 0.00 75 1017.9
20240222002402 70 178 11.3 14.8 0.00 0.00 0.00 76 1017.9
20240222002306 70 161 10.4 13.9 0.00 0.00 0.00 76 1017.9
20240222002202 70 188 8.7 14.8 0.00 0.00 0.00 76 1017.9
20240222002102 70 140 8.7 16.5 0.00 0.00 0.00 76 1017.8
20240222002003 70 164 9.6 16.5 0.00 0.00 0.00 75 1017.9
20240222001903 70 196 9.6 16.5 0.00 0.00 0.00 75 1017.8
20240222001803 70 169 9.6 17.4 0.00 0.00 0.00 75 1017.9
20240222001702 70 190 9.6 18.2 0.00 0.00 0.00 75 1017.8
20240222001603 70 190 10.4 18.2 0.00 0.00 0.00 75 1017.9
20240222001503 70 179 10.4 18.2 0.00 0.00 0.00 75 1017.9
20240222001403 70 162 10.4 18.2 0.00 0.00 0.00 75 1017.9
20240222001301 70 152 12.2 18.2 0.00 0.00 0.00 75 1017.9
20240222001202 70 176 12.2 18.2 0.00 0.00 0.00 75 1017.9
20240222001102 70 157 12.2 18.2 0.00 0.00 0.00 75 1017.9
20240222001002 70 158 12.2 18.2 0.00 0.00 0.00 75 1017.9
20240222000901 70 168 13.0 18.2 0.00 0.00 0.00 74 1017.9
20240222000803 70 155 12.2 18.2 0.00 0.00 0.00 74 1017.9
20240222000702 70 168 10.4 14.8 0.00 0.00 0.00 74 1017.8
20240222000601 70 182 8.7 14.8 0.00 0.00 0.00 74 1017.9
20240222000502 70 168 8.7 14.8 0.00 0.00 0.00 74 1017.9
20240222000403 70 166 10.4 14.8 0.00 0.00 0.00 74 1017.8
20240222000303 70 197 10.4 14.8 0.00 0.00 0.00 74 1017.8
20240222000204 70 197 9.6 14.8 0.00 0.00 0.00 73 1017.8
20240222000103 70 186 7.0 13.9 0.00 0.00 0.00 73 1017.8
20240222000003 70 161 7.0 13.9 0.00 0.00 0.00 73 1017.8
20240221235901 70 169 9.6 13.9 0.00 0.00 0.00 73 1017.9
20240221235803 70 188 10.4 13.9 0.00 0.00 0.00 73 1017.9
20240221235704 71 176 9.6 13.9 0.00 0.00 0.00 73 1017.9
20240221235602 71 166 9.6 13.9 0.00 0.00 0.00 73 1017.9
20240221235502 71 192 9.6 13.9 0.00 0.00 0.00 73 1017.9
20240221235403 71 185 8.7 14.8 0.00 0.00 0.00 73 1017.9
20240221235305 71 168 8.7 14.8 0.00 0.00 0.00 73 1017.9
20240221235202 71 202 9.6 14.8 0.00 0.00 0.00 73 1017.9
20240221235103 71 200 9.6 14.8 0.00 0.00 0.00 73 1017.8
20240221235002 71 186 7.8 14.8 0.00 0.00 0.00 73 1017.8
20240221234901 71 197 7.8 14.8 0.00 0.00 0.00 72 1017.8
20240221234803 71 180 8.7 14.8 0.00 0.00 0.00 72 1017.8
20240221234703 71 179 8.7 19.1 0.00 0.00 0.00 72 1017.9
20240221234602 71 176 9.6 19.1 0.00 0.00 0.00 72 1017.8
20240221234502 71 188 10.4 19.1 0.00 0.00 0.00 72 1017.8
20240221234403 71 188 8.7 19.1 0.00 0.00 0.00 72 1017.8
20240221234302 71 189 8.7 19.1 0.00 0.00 0.00 72 1017.9
20240221234201 71 188 8.7 19.1 0.00 0.00 0.00 72 1017.8
20240221234102 71 175 8.7 19.1 0.00 0.00 0.00 72 1017.9
20240221234003 71 213 9.6 19.1 0.00 0.00 0.00 72 1017.9
20240221233901 71 189 12.2 19.1 0.00 0.00 0.00 72 1017.8
20240221233801 71 188 13.0 19.1 0.00 0.00 0.00 72 1017.8
20240221233703 71 195 9.6 16.5 0.00 0.00 0.00 72 1017.9
20240221233602 71 202 7.8 16.5 0.00 0.00 0.00 72 1017.8
20240221233502 71 189 7.0 16.5 0.00 0.00 0.00 72 1017.8
20240221233403 71 209 7.8 16.5 0.00 0.00 0.00 71 1017.8
20240221233304 71 183 8.7 16.5 0.00 0.00 0.00 71 1017.8
20240221233202 71 183 9.6 16.5 0.00 0.00 0.00 71 1017.8
20240221233102 71 192 10.4 16.5 0.00 0.00 0.00 71 1017.8
20240221233003 71 182 11.3 16.5 0.00 0.00 0.00 71 1017.7
20240221232902 71 182 11.3 16.5 0.00 0.00 0.00 71 1017.8
20240221232802 71 199 11.3 16.5 0.00 0.00 0.00 71 1017.8
20240221232703 71 185 12.2 16.5 0.00 0.00 0.00 71 1017.9
20240221232602 71 183 12.2 16.5 0.00 0.00 0.00 71 1017.8
20240221232503 71 197 9.6 16.5 0.00 0.00 0.00 71 1017.8
20240221232402 71 193 9.6 16.5 0.00 0.00 0.00 71 1017.8
20240221232305 71 182 11.3 16.5 0.00 0.00 0.00 71 1017.8
20240221232202 71 173 12.2 16.5 0.00 0.00 0.00 71 1017.9
20240221232102 71 171 11.3 16.5 0.00 0.00 0.00 71 1017.8
20240221232003 71 180 11.3 16.5 0.00 0.00 0.00 71 1017.7
20240221231901 71 172 9.6 16.5 0.00 0.00 0.00 71 1017.7
20240221231803 71 162 9.6 16.5 0.00 0.00 0.00 71 1017.8
20240221231703 72 182 9.6 16.5 0.00 0.00 0.00 71 1017.7
20240221231603 72 165 9.6 16.5 0.00 0.00 0.00 71 1017.8
20240221231501 72 195 10.4 16.5 0.00 0.00 0.00 71 1017.7
20240221231402 72 176 10.4 16.5 0.00 0.00 0.00 71 1017.7
20240221231303 72 200 10.4 16.5 0.00 0.00 0.00 71 1017.8
20240221231203 72 176 11.3 16.5 0.00 0.00 0.00 71 1017.8
20240221231102 72 186 10.4 19.1 0.00 0.00 0.00 72 1017.7
20240221231003 72 179 7.8 19.1 0.00 0.00 0.00 72 1017.8
20240221230902 72 189 7.8 19.1 0.00 0.00 0.00 72 1017.8
20240221230802 72 166 7.8 19.1 0.00 0.00 0.00 72 1017.8
20240221230702 72 186 7.0 19.1 0.00 0.00 0.00 72 1017.8
20240221230603 72 196 8.7 19.1 0.00 0.00 0.00 72 1017.8
20240221230502 72 161 11.3 20.0 0.00 0.00 0.00 71 1017.7
20240221230402 72 176 11.3 20.0 0.00 0.00 0.00 71 1017.7
20240221230303 72 179 11.3 20.0 0.00 0.00 0.00 71 1017.7
20240221230202 72 173 12.2 20.0 0.00 0.00 0.00 71 1017.7
20240221230101 72 214 12.2 20.0 0.00 0.00 0.00 71 1017.6
20240221230002 72 175 10.4 20.0 0.00 0.00 0.00 71 1017.6
20240221225903 72 172 10.4 20.0 0.00 0.00 0.00 71 1017.6
20240221225802 72 200 11.3 20.0 0.00 0.00 0.00 71 1017.6
20240221225702 72 206 12.2 20.0 0.00 0.00 0.00 71 1017.6
20240221225602 72 190 12.2 20.0 0.00 0.00 0.00 71 1017.6
20240221225502 72 209 11.3 17.4 0.00 0.00 0.00 71 1017.7
20240221225402 72 206 10.4 17.4 0.00 0.00 0.00 71 1017.6
20240221225306 72 203 10.4 17.4 0.00 0.00 0.00 71 1017.7
20240221225203 72 173 10.4 19.1 0.00 0.00 0.00 71 1017.6
20240221225101 72 185 11.3 19.1 0.00 0.00 0.00 71 1017.6
20240221225002 72 161 12.2 19.1 0.00 0.00 0.00 71 1017.5
20240221224903 72 178 11.3 19.1 0.00 0.00 0.00 71 1017.6
20240221224804 72 147 10.4 19.1 0.00 0.00 0.00 71 1017.5
20240221224701 72 196 11.3 19.1 0.00 0.00 0.00 71 1017.7
20240221224603 72 168 9.6 19.1 0.00 0.00 0.00 71 1017.6
20240221224503 73 165 8.7 19.1 0.00 0.00 0.00 71 1017.7
20240221224403 73 183 11.3 19.1 0.00 0.00 0.00 70 1017.6
20240221224302 73 158 12.2 19.1 0.00 0.00 0.00 70 1017.5
20240221224203 73 182 11.3 19.1 0.00 0.00 0.00 70 1017.6
20240221224101 73 162 12.2 19.1 0.00 0.00 0.00 70 1017.5
20240221224002 73 157 13.9 19.1 0.00 0.00 0.00 70 1017.5
20240221223903 73 175 11.3 19.1 0.00 0.00 0.00 70 1017.5
20240221223802 73 172 10.4 18.2 0.00 0.00 0.00 70 1017.6
20240221223701 73 171 11.3 18.2 0.00 0.00 0.00 70 1017.5
20240221223602 73 164 9.6 18.2 0.00 0.00 0.00 70 1017.5
20240221223503 73 182 11.3 18.2 0.00 0.00 0.00 70 1017.6
20240221223402 73 169 11.3 18.2 0.00 0.00 0.00 70 1017.6
20240221223302 73 164 12.2 18.2 0.00 0.00 0.00 70 1017.6
20240221223204 73 178 11.3 18.2 0.00 0.00 0.00 70 1017.6
20240221223102 73 149 8.7 18.2 0.00 0.00 0.00 70 1017.6
20240221223005 73 162 10.4 18.2 0.00 0.00 0.00 70 1017.7
20240221222904 73 183 12.2 18.2 0.00 0.00 0.00 70 1017.6
20240221222803 74 183 12.2 18.2 0.00 0.00 0.00 70 1017.6
20240221222702 74 188 11.3 18.2 0.00 0.00 0.00 70 1017.7
20240221222602 74 166 11.3 17.4 0.00 0.00 0.00 70 1017.7
20240221222503 74 158 11.3 17.4 0.00 0.00 0.00 70 1017.7
20240221222402 74 168 11.3 15.6 0.00 0.00 0.00 70 1017.8
20240221222301 74 165 11.3 15.6 0.00 0.00 0.00 69 1017.8
20240221222204 74 173 11.3 14.8 0.00 0.00 0.00 69 1017.8
20240221222103 74 159 9.6 14.8 0.00 0.00 0.00 69 1017.6
20240221222002 74 137 9.6 14.8 0.00 0.00 0.00 69 1017.6
20240221221902 74 173 9.6 14.8 0.00 0.00 0.00 69 1017.6
20240221221802 74 182 7.8 19.1 0.00 0.00 0.00 69 1017.7
20240221221701 74 189 7.8 19.1 0.00 0.00 0.00 69 1017.7
20240221221559 74 152 8.7 19.1 0.00 0.00 0.00 69 1017.7
20240221221458 74 169 7.8 19.1 0.00 0.00 0.00 69 1017.7
20240221221357 74 171 6.1 19.1 0.00 0.00 0.00 69 1017.7
20240221221253 74 164 6.1 19.1 0.00 0.00 0.00 69 1017.7
20240221221152 74 131 7.8 19.1 0.00 0.00 0.00 69 1017.8
20240221221052 75 162 11.3 19.1 0.00 0.00 0.00 68 1017.8
20240221220950 75 175 12.2 19.1 0.00 0.00 0.00 68 1017.7
20240221220849 75 176 10.4 19.1 0.00 0.00 0.00 68 1017.8
20240221220747 75 165 9.6 16.5 0.00 0.00 0.00 68 1017.7
20240221220645 75 190 10.4 16.5 0.00 0.00 0.00 68 1017.7
20240221220544 75 182 10.4 17.4 0.00 0.00 0.00 68 1017.8
20240221220440 75 152 8.7 17.4 0.00 0.00 0.00 68 1017.8
20240221220338 75 182 7.8 17.4 0.00 0.00 0.00 68 1017.7
20240221220236 75 175 8.7 17.4 0.00 0.00 0.00 68 1017.8
20240221220135 75 185 9.6 17.4 0.00 0.00 0.00 68 1017.7
20240221220036 75 206 12.2 17.4 0.00 0.00 0.00 68 1017.7
20240221215935 75 182 12.2 17.4 0.00 0.00 0.00 68 1017.8
20240221215837 75 169 11.3 17.4 0.00 0.00 0.00 68 1017.9
20240221215736 75 197 11.3 17.4 0.00 0.00 0.00 68 1017.9
20240221215637 75 188 10.4 17.4 0.00 0.00 0.00 68 1017.8
20240221215536 75 179 9.6 17.4 0.00 0.00 0.00 67 1017.9
20240221215436 75 175 12.2 17.4 0.00 0.00 0.00 67 1017.9
20240221215337 76 171 13.0 17.4 0.00 0.00 0.00 67 1017.9
20240221215235 76 165 9.6 17.4 0.00 0.00 0.00 68 1018.0
20240221215136 76 204 7.0 13.9 0.00 0.00 0.00 68 1018.0
20240221215035 76 159 7.8 14.8 0.00 0.00 0.00 68 1017.9
20240221214937 76 161 7.8 14.8 0.00 0.00 0.00 68 1018.0
20240221214835 76 164 7.0 14.8 0.00 0.00 0.00 68 1018.0
20240221214735 76 162 7.0 14.8 0.00 0.00 0.00 68 1018.0
20240221214636 75 182 7.8 14.8 0.00 0.00 0.00 68 1018.0
20240221214536 75 152 7.8 17.4 0.00 0.00 0.00 68 1017.9
20240221214435 75 162 7.8 17.4 0.00 0.00 0.00 68 1018.0
20240221214335 75 206 7.8 17.4 0.00 0.00 0.00 68 1017.9
20240221214236 75 171 7.8 17.4 0.00 0.00 0.00 68 1017.9
20240221214135 75 164 8.7 17.4 0.00 0.00 0.00 68 1018.1
20240221214036 75 161 8.7 17.4 0.00 0.00 0.00 68 1018.1
20240221213936 75 152 7.8 17.4 0.00 0.00 0.00 68 1018.0
20240221213835 75 128 8.7 19.1 0.00 0.00 0.00 68 1018.0
20240221213735 75 164 12.2 19.1 0.00 0.00 0.00 68 1018.0
20240221213635 75 179 11.3 19.1 0.00 0.00 0.00 68 1018.0
20240221213536 75 175 9.6 19.1 0.00 0.00 0.00 68 1018.1
20240221213435 75 166 7.8 19.1 0.00 0.00 0.00 68 1018.1
20240221213335 75 188 9.6 19.1 0.00 0.00 0.00 68 1018.1
20240221213236 75 183 10.4 19.1 0.00 0.00 0.00 67 1018.2
20240221213134 75 173 8.7 19.1 0.00 0.00 0.00 68 1018.2
20240221213035 75 168 11.3 19.1 0.00 0.00 0.00 67 1018.2
20240221212936 76 180 13.0 19.1 0.00 0.00 0.00 67 1018.2
20240221212836 76 141 11.3 17.4 0.00 0.00 0.00 67 1018.2
20240221212735 76 179 10.4 17.4 0.00 0.00 0.00 67 1018.2
20240221212634 76 176 10.4 17.4 0.00 0.00 0.00 68 1018.2
20240221212537 76 165 11.3 15.6 0.00 0.00 0.00 68 1018.2
20240221212436 76 197 9.6 15.6 0.00 0.00 0.00 68 1018.2
20240221212335 75 161 7.8 15.6 0.00 0.00 0.00 68 1018.2
20240221212237 75 158 8.7 17.4 0.00 0.00 0.00 69 1018.3
20240221212135 75 155 8.7 17.4 0.00 0.00 0.00 68 1018.4
20240221212034 75 164 8.7 18.2 0.00 0.00 0.00 68 1018.4
20240221211934 75 158 8.7 18.2 0.00 0.00 0.00 68 1018.4
20240221211835 75 151 7.8 18.2 0.00 0.00 0.00 68 1018.4
20240221211735 75 161 7.8 18.2 0.00 0.00 0.00 68 1018.3
20240221211634 75 185 9.6 18.2 0.00 0.00 0.00 68 1018.4
20240221211534 75 141 10.4 18.2 0.00 0.00 0.00 68 1018.3
20240221211435 76 155 9.6 18.2 0.00 0.00 0.00 68 1018.5
20240221211335 76 182 11.3 18.2 0.00 0.00 0.00 68 1018.5
20240221211234 76 161 13.0 18.2 0.00 0.00 0.00 67 1018.5
20240221211135 76 199 10.4 18.2 0.00 0.00 0.00 67 1018.5
20240221211034 76 193 9.6 18.2 0.00 0.00 0.00 67 1018.6
20240221210934 76 171 10.4 18.2 0.00 0.00 0.00 67 1018.5
20240221210835 76 164 11.3 18.2 0.00 0.00 0.00 67 1018.5
20240221210734 76 165 11.3 18.2 0.00 0.00 0.00 67 1018.6
20240221210634 76 173 12.2 18.2 0.00 0.00 0.00 67 1018.6
20240221210534 76 152 10.4 20.0 0.00 0.00 0.00 67 1018.6
20240221210435 76 175 7.8 20.0 0.00 0.00 0.00 67 1018.6
20240221210334 76 172 8.7 20.0 0.00 0.00 0.00 67 1018.6
20240221210234 76 180 10.4 20.0 0.00 0.00 0.00 68 1018.7
20240221210135 76 162 11.3 20.0 0.00 0.00 0.00 68 1018.6
20240221210035 76 166 11.3 20.0 0.00 0.00 0.00 68 1018.7
20240221205934 76 171 10.4 20.0 0.00 0.00 0.00 67 1018.8
20240221205834 76 182 11.3 20.0 0.00 0.00 0.00 67 1018.7
20240221205736 76 188 13.9 20.0 0.00 0.00 0.00 67 1018.8
20240221205634 76 178 13.0 20.0 0.00 0.00 0.00 67 1018.8
20240221205534 76 195 7.8 19.1 0.00 0.00 0.00 67 1018.8
20240221205435 76 158 8.7 19.1 0.00 0.00 0.00 67 1018.8
20240221205335 76 183 10.4 19.1 0.00 0.00 0.00 67 1018.9
20240221205235 76 161 12.2 19.1 0.00 0.00 0.00 67 1018.8
20240221205134 76 182 11.3 19.1 0.00 0.00 0.00 67 1019.0
20240221205035 76 168 9.6 19.1 0.00 0.00 0.00 67 1018.9
20240221204933 76 151 9.6 19.1 0.00 0.00 0.00 67 1018.9
20240221204834 76 158 11.3 19.1 0.00 0.00 0.00 67 1018.9
20240221204735 76 166 11.3 19.1 0.00 0.00 0.00 67 1018.9
20240221204634 76 185 9.6 19.1 0.00 0.00 0.00 67 1018.9
20240221204534 76 172 11.3 19.1 0.00 0.00 0.00 67 1019.0
20240221204435 76 188 12.2 19.1 0.00 0.00 0.00 67 1019.0
20240221204334 76 161 13.0 19.1 0.00 0.00 0.00 67 1019.1
20240221204234 76 186 11.3 18.2 0.00 0.00 0.00 67 1019.0
20240221204134 76 161 9.6 18.2 0.00 0.00 0.00 68 1019.1
20240221204034 76 176 10.4 16.5 0.00 0.00 0.00 68 1019.1
20240221203933 76 176 10.4 16.5 0.00 0.00 0.00 68 1019.1
20240221203835 76 190 9.6 16.5 0.00 0.00 0.00 68 1019.1
20240221203733 76 189 7.8 17.4 0.00 0.00 0.00 69 1019.1
20240221203634 76 197 7.0 17.4 0.00 0.00 0.00 68 1019.1
20240221203534 75 200 9.6 17.4 0.00 0.00 0.00 68 1019.1
20240221203433 75 151 10.4 17.4 0.00 0.00 0.00 68 1019.1
20240221203335 75 168 9.6 17.4 0.00 0.00 0.00 68 1019.2
20240221203234 75 176 10.4 17.4 0.00 0.00 0.00 68 1019.1
20240221203133 76 165 10.4 17.4 0.00 0.00 0.00 68 1019.1
20240221203033 76 123 11.3 17.4 0.00 0.00 0.00 68 1019.1
20240221202934 76 151 12.2 17.4 0.00 0.00 0.00 68 1019.2
20240221202834 76 178 11.3 17.4 0.00 0.00 0.00 68 1019.2
20240221202732 76 162 11.3 17.4 0.00 0.00 0.00 68 1019.3
20240221202630 76 165 13.0 17.4 0.00 0.00 0.00 68 1019.4
20240221202532 76 144 11.3 17.4 0.00 0.00 0.00 68 1019.4
20240221202432 76 157 10.4 17.4 0.00 0.00 0.00 68 1019.4
20240221202331 76 179 9.6 17.4 0.00 0.00 0.00 67 1019.4
20240221202230 76 224 10.4 17.4 0.00 0.00 0.00 67 1019.4
20240221202132 76 190 11.3 18.2 0.00 0.00 0.00 68 1019.4
20240221202031 76 185 10.4 18.2 0.00 0.00 0.00 68 1019.4
20240221201931 76 204 9.6 18.2 0.00 0.00 0.00 68 1019.4
20240221201833 76 192 7.8 18.2 0.00 0.00 0.00 68 1019.3
20240221201731 76 172 9.6 18.2 0.00 0.00 0.00 68 1019.4
20240221201631 76 196 10.4 18.2 0.00 0.00 0.00 68 1019.5
20240221201531 76 193 11.3 20.9 0.00 0.00 0.00 68 1019.5
20240221201433 76 175 12.2 20.9 0.00 0.00 0.00 68 1019.5
20240221201331 76 164 12.2 20.9 0.00 0.00 0.00 67 1019.5
20240221201230 76 162 13.0 20.9 0.00 0.00 0.00 67 1019.5
20240221201131 76 192 12.2 20.9 0.00 0.00 0.00 67 1019.6
20240221201031 76 165 10.4 20.9 0.00 0.00 0.00 68 1019.4
20240221200929 76 179 9.6 20.9 0.00 0.00 0.00 68 1019.6
20240221200827 76 171 11.3 20.9 0.00 0.00 0.00 68 1019.6
20240221200726 76 185 13.0 20.9 0.00 0.00 0.00 68 1019.6
20240221200625 76 176 12.2 20.9 0.00 0.00 0.00 68 1019.6
20240221200523 76 179 10.4 19.1 0.00 0.00 0.00 69 1019.6
20240221200421 76 179 10.4 22.6 0.00 0.00 0.00 69 1019.6
20240221200320 75 182 10.4 22.6 0.00 0.00 0.00 69 1019.6
20240221200220 75 180 9.6 22.6 0.00 0.00 0.00 69 1019.6
20240221200118 75 155 11.3 22.6 0.00 0.00 0.00 69 1019.6
20240221200016 75 171 13.0 22.6 0.00 0.00 0.00 68 1019.7
20240221195914 76 178 13.0 22.6 0.00 0.00 0.00 68 1019.7
20240221195813 76 178 13.0 22.6 0.00 0.00 0.00 68 1019.8
20240221195712 76 172 14.8 22.6 0.00 0.00 0.00 68 1019.8
20240221195609 76 185 14.8 22.6 0.00 0.00 0.00 68 1019.8
20240221195509 76 182 10.4 22.6 0.00 0.00 0.00 68 1019.9
20240221195403 76 175 7.8 17.4 0.00 0.00 0.00 67 1019.9
20240221195305 76 192 11.3 18.2 0.00 0.00 0.00 67 1019.8
20240221195203 76 185 12.2 18.2 0.00 0.00 0.00 67 1019.8
20240221195102 76 178 11.3 18.2 0.00 0.00 0.00 68 1019.8
20240221195002 76 166 11.3 18.2 0.00 0.00 0.00 68 1019.8
20240221194903 76 158 11.3 18.2 0.00 0.00 0.00 68 1019.9
20240221194804 76 172 12.2 18.2 0.00 0.00 0.00 68 1019.9
20240221194702 76 162 12.2 18.2 0.00 0.00 0.00 68 1019.9
20240221194602 76 178 11.3 18.2 0.00 0.00 0.00 68 1020.0
20240221194504 76 186 11.3 18.2 0.00 0.00 0.00 68 1019.9
20240221194402 76 186 11.3 18.2 0.00 0.00 0.00 67 1020.0
20240221194301 76 175 8.7 14.8 0.00 0.00 0.00 68 1020.0
20240221194202 76 169 7.8 18.2 0.00 0.00 0.00 68 1020.0
20240221194102 76 192 9.6 18.2 0.00 0.00 0.00 67 1020.0
20240221194003 76 175 9.6 18.2 0.00 0.00 0.00 68 1020.1
20240221193902 76 178 7.8 18.2 0.00 0.00 0.00 68 1020.1
20240221193804 76 169 9.6 18.2 0.00 0.00 0.00 68 1020.0
20240221193702 76 164 10.4 18.2 0.00 0.00 0.00 67 1020.0
20240221193601 76 159 9.6 18.2 0.00 0.00 0.00 68 1020.1
20240221193502 76 152 9.6 18.2 0.00 0.00 0.00 68 1020.0
20240221193403 76 133 11.3 18.2 0.00 0.00 0.00 67 1020.0
20240221193302 76 158 10.4 18.2 0.00 0.00 0.00 67 1020.1
20240221193202 76 155 9.6 16.5 0.00 0.00 0.00 67 1020.1
20240221193103 76 168 10.4 16.5 0.00 0.00 0.00 67 1020.1
20240221193003 76 164 9.6 16.5 0.00 0.00 0.00 67 1020.2
20240221192902 76 185 9.6 15.6 0.00 0.00 0.00 67 1020.2
20240221192803 76 180 8.7 15.6 0.00 0.00 0.00 67 1020.2
20240221192703 76 118 8.7 15.6 0.00 0.00 0.00 67 1020.2
20240221192602 76 125 8.7 15.6 0.00 0.00 0.00 67 1020.1
20240221192501 76 172 10.4 15.6 0.00 0.00 0.00 67 1020.3
20240221192403 76 183 10.4 15.6 0.00 0.00 0.00 67 1020.3
20240221192305 76 76 10.4 15.6 0.00 0.00 0.00 67 1020.3
20240221192202 76 157 11.3 15.6 0.00 0.00 0.00 67 1020.4
20240221192103 76 203 11.3 15.6 0.00 0.00 0.00 67 1020.5
20240221192003 76 175 9.6 14.8 0.00 0.00 0.00 68 1020.4
20240221191902 76 171 7.0 14.8 0.00 0.00 0.00 68 1020.4
20240221191802 76 165 7.8 14.8 0.00 0.00 0.00 67 1020.4
20240221191704 76 161 9.6 14.8 0.00 0.00 0.00 67 1020.4
20240221191601 76 200 11.3 14.8 0.00 0.00 0.00 67 1020.5
20240221191502 76 195 10.4 14.8 0.00 0.00 0.00 67 1020.4
20240221191403 76 162 8.7 14.8 0.00 0.00 0.00 67 1020.6
20240221191302 76 110 9.6 14.8 0.00 0.00 0.00 67 1020.6
20240221191203 76 179 9.6 14.8 0.00 0.00 0.00 67 1020.6
20240221191103 76 148 9.6 14.8 0.00 0.00 0.00 67 1020.7
20240221191004 76 195 8.7 13.9 0.00 0.00 0.00 67 1020.6
20240221190904 76 165 8.7 13.9 0.00 0.00 0.00 67 1020.7
20240221190802 76 162 8.7 13.9 0.00 0.00 0.00 67 1020.8
20240221190703 76 165 8.7 14.8 0.00 0.00 0.00 67 1020.7
20240221190602 76 197 8.7 14.8 0.00 0.00 0.00 68 1020.7
20240221190502 76 192 8.7 14.8 0.00 0.00 0.00 68 1020.8
20240221190403 76 212 10.4 14.8 0.00 0.00 0.00 68 1020.8
20240221190302 76 179 8.7 14.8 0.00 0.00 0.00 68 1020.8
20240221190202 76 189 7.8 14.8 0.00 0.00 0.00 68 1021.0
20240221190101 76 196 8.7 14.8 0.00 0.00 0.00 68 1021.0
20240221190004 76 165 9.6 14.8 0.00 0.00 0.00 68 1021.0
20240221185902 76 197 10.4 14.8 0.00 0.00 0.00 68 1021.0
20240221185802 76 152 10.4 14.8 0.00 0.00 0.00 68 1021.0
20240221185704 76 164 7.8 17.4 0.00 0.00 0.00 68 1021.0
20240221185602 76 154 8.7 17.4 0.00 0.00 0.00 68 1021.0
20240221185502 76 185 7.8 17.4 0.00 0.00 0.00 68 1021.0
20240221185402 75 161 8.7 17.4 0.00 0.00 0.00 68 1021.1
20240221185305 75 172 9.6 17.4 0.00 0.00 0.00 68 1021.1
20240221185202 76 178 11.3 17.4 0.00 0.00 0.00 68 1021.1
20240221185102 76 196 11.3 17.4 0.00 0.00 0.00 68 1021.2
20240221185002 76 195 10.4 17.4 0.00 0.00 0.00 67 1021.1
20240221184903 76 186 11.3 17.4 0.00 0.00 0.00 67 1021.3
20240221184802 76 192 12.2 17.4 0.00 0.00 0.00 67 1021.3
20240221184703 75 189 9.6 16.5 0.00 0.00 0.00 68 1021.3
20240221184603 75 178 8.7 16.5 0.00 0.00 0.00 68 1021.4
20240221184503 75 148 8.7 16.5 0.00 0.00 0.00 69 1021.3
20240221184402 75 213 8.7 16.5 0.00 0.00 0.00 69 1021.4
20240221184303 75 155 8.7 16.5 0.00 0.00 0.00 69 1021.4
20240221184203 75 161 8.7 16.5 0.00 0.00 0.00 69 1021.4
20240221184102 75 224 7.8 16.5 0.00 0.00 0.00 69 1021.4
20240221184002 75 164 10.4 16.5 0.00 0.00 0.00 68 1021.4
20240221183902 75 183 13.0 16.5 0.00 0.00 0.00 68 1021.4
20240221183803 75 183 13.0 16.5 0.00 0.00 0.00 68 1021.5
20240221183702 75 207 11.3 15.6 0.00 0.00 0.00 68 1021.5
20240221183603 75 189 9.6 14.8 0.00 0.00 0.00 68 1021.4
20240221183502 75 202 9.6 14.8 0.00 0.00 0.00 68 1021.5
20240221183402 75 220 10.4 14.8 0.00 0.00 0.00 69 1021.5
20240221183303 75 176 10.4 15.6 0.00 0.00 0.00 68 1021.6
20240221183203 75 158 10.4 15.6 0.00 0.00 0.00 69 1021.6
20240221183102 75 183 9.6 15.6 0.00 0.00 0.00 69 1021.6
20240221183003 75 171 9.6 15.6 0.00 0.00 0.00 69 1021.7
20240221182904 75 161 10.4 15.6 0.00 0.00 0.00 69 1021.6
20240221182802 75 165 9.6 17.4 0.00 0.00 0.00 69 1021.7
20240221182702 75 189 9.6 17.4 0.00 0.00 0.00 69 1021.8
20240221182604 75 152 11.3 17.4 0.00 0.00 0.00 69 1021.7
20240221182502 75 168 10.4 17.4 0.00 0.00 0.00 68 1021.8
20240221182402 75 213 9.6 17.4 0.00 0.00 0.00 69 1021.8
20240221182305 75 190 9.6 17.4 0.00 0.00 0.00 68 1021.7
20240221182202 75 157 10.4 17.4 0.00 0.00 0.00 69 1021.8
20240221182102 75 178 11.3 17.4 0.00 0.00 0.00 69 1021.9
20240221182002 75 178 12.2 17.4 0.00 0.00 0.00 68 1021.9
20240221181903 75 165 10.4 17.4 0.00 0.00 0.00 69 1021.9
20240221181802 75 162 10.4 15.6 0.00 0.00 0.00 69 1022.0
20240221181702 75 175 10.4 15.6 0.00 0.00 0.00 69 1022.1
20240221181604 75 144 9.6 15.6 0.00 0.00 0.00 69 1022.1
20240221181503 75 186 11.3 15.6 0.00 0.00 0.00 69 1022.1
20240221181402 75 188 11.3 15.6 0.00 0.00 0.00 69 1022.1
20240221181302 75 179 10.4 15.6 0.00 0.00 0.00 69 1022.1
20240221181202 75 172 10.4 15.6 0.00 0.00 0.00 69 1022.1
20240221181103 75 183 10.4 15.6 0.00 0.00 0.00 69 1022.1
20240221181002 75 149 10.4 15.6 0.00 0.00 0.00 69 1022.1
20240221180903 75 200 9.6 15.6 0.00 0.00 0.00 70 1022.1
20240221180802 75 196 7.8 15.6 0.00 0.00 0.00 70 1022.1
20240221180702 75 192 7.8 15.6 0.00 0.00 0.00 70 1022.2
20240221180604 75 185 7.8 16.5 0.00 0.00 0.00 70 1022.2
20240221180503 75 155 8.7 16.5 0.00 0.00 0.00 70 1022.2
20240221180402 75 148 10.4 16.5 0.00 0.00 0.00 70 1022.3
20240221180302 75 155 10.4 16.5 0.00 0.00 0.00 70 1022.4
20240221180202 75 159 8.7 16.5 0.00 0.00 0.00 70 1022.4
20240221180103 75 168 7.8 16.5 0.00 0.00 0.00 70 1022.3
20240221180003 75 192 7.0 16.5 0.00 0.00 0.00 70 1022.4
20240221175903 75 202 8.7 16.5 0.00 0.00 0.00 70 1022.4
20240221175802 75 197 11.3 16.5 0.00 0.00 0.00 69 1022.4
20240221175701 74 214 12.2 16.5 0.00 0.00 0.00 69 1022.5
20240221175602 75 209 11.3 16.5 0.00 0.00 0.00 69 1022.5
20240221175504 75 195 10.4 16.5 0.00 0.00 0.00 69 1022.5
20240221175402 74 192 9.6 15.6 0.00 0.00 0.00 69 1022.5
20240221175306 74 180 9.6 14.8 0.00 0.00 0.00 69 1022.5
20240221175203 74 183 9.6 14.8 0.00 0.00 0.00 70 1022.5
20240221175102 74 166 10.4 14.8 0.00 0.00 0.00 70 1022.6
20240221175003 74 166 9.6 14.8 0.00 0.00 0.00 70 1022.4
20240221174903 74 206 9.6 14.8 0.00 0.00 0.00 70 1022.5
20240221174803 74 195 9.6 14.8 0.00 0.00 0.00 69 1022.6
20240221174703 74 169 8.7 14.8 0.00 0.00 0.00 70 1022.6
20240221174605 74 193 9.6 15.6 0.00 0.00 0.00 70 1022.6
20240221174504 74 171 10.4 15.6 0.00 0.00 0.00 70 1022.6
20240221174401 74 186 11.3 15.6 0.00 0.00 0.00 69 1022.5
20240221174302 74 148 9.6 15.6 0.00 0.00 0.00 70 1022.6
20240221174203 74 149 8.7 15.6 0.00 0.00 0.00 70 1022.6
20240221174102 74 157 8.7 15.6 0.00 0.00 0.00 70 1022.6
20240221174003 74 168 9.6 15.6 0.00 0.00 0.00 70 1022.6
20240221173902 74 176 10.4 15.6 0.00 0.00 0.00 70 1022.6
20240221173803 74 169 11.3 15.6 0.00 0.00 0.00 70 1022.6
20240221173701 74 175 10.4 15.6 0.00 0.00 0.00 71 1022.6
20240221173602 74 204 7.8 13.9 0.00 0.00 0.00 71 1022.6
20240221173505 74 182 8.7 13.9 0.00 0.00 0.00 71 1022.5
20240221173403 74 165 8.7 13.9 0.00 0.00 0.00 71 1022.6
20240221173302 74 155 8.7 13.9 0.00 0.00 0.00 72 1022.6
20240221173201 74 179 9.6 16.5 0.00 0.00 0.00 71 1022.6
20240221173102 74 196 8.7 16.5 0.00 0.00 0.00 72 1022.6
20240221173003 73 192 8.7 16.5 0.00 0.00 0.00 72 1022.7
20240221172904 73 192 8.7 16.5 0.00 0.00 0.00 72 1022.7
20240221172803 73 192 8.7 16.5 0.00 0.00 0.00 72 1022.6
20240221172702 73 172 8.7 16.5 0.00 0.00 0.00 72 1022.6
20240221172602 73 157 8.7 16.5 0.00 0.00 0.00 72 1022.7
20240221172503 73 185 10.4 16.5 0.00 0.00 0.00 72 1022.7
20240221172403 73 183 12.2 16.5 0.00 0.00 0.00 72 1022.8
20240221172305 73 182 10.4 16.5 0.00 0.00 0.00 73 1022.7
20240221172203 73 202 7.8 15.6 0.00 0.00 0.00 73 1022.7
20240221172102 73 182 7.8 15.6 0.00 0.00 0.00 73 1022.6
20240221172002 73 195 8.7 15.6 0.00 0.00 0.00 73 1022.7
20240221171902 73 210 9.6 15.6 0.00 0.00 0.00 73 1022.6
20240221171803 73 165 11.3 15.6 0.00 0.00 0.00 73 1022.7
20240221171703 73 188 11.3 16.5 0.00 0.00 0.00 73 1022.7
20240221171602 73 186 10.4 16.5 0.00 0.00 0.00 73 1022.7
20240221171502 73 180 10.4 16.5 0.00 0.00 0.00 73 1022.8
20240221171403 73 216 10.4 16.5 0.00 0.00 0.00 73 1022.8
20240221171302 73 186 9.6 16.5 0.00 0.00 0.00 73 1022.8
20240221171202 73 185 10.4 16.5 0.00 0.00 0.00 73 1022.8
20240221171103 73 204 9.6 16.5 0.00 0.00 0.00 73 1022.9
20240221171003 73 173 8.7 16.5 0.00 0.00 0.00 73 1022.8
20240221170903 73 190 11.3 16.5 0.00 0.00 0.00 73 1022.8
20240221170804 73 190 11.3 17.4 0.00 0.00 0.00 73 1022.8
20240221170703 73 190 10.4 17.4 0.00 0.00 0.00 72 1022.8
20240221170601 73 154 8.7 17.4 0.00 0.00 0.00 73 1022.9
20240221170502 73 210 7.8 17.4 0.00 0.00 0.00 73 1022.8
20240221170401 73 186 9.6 17.4 0.00 0.00 0.00 73 1022.8
20240221170303 73 183 11.3 17.4 0.00 0.00 0.00 72 1022.9
20240221170202 73 179 12.2 17.4 0.00 0.00 0.00 72 1022.9
20240221170103 73 179 12.2 17.4 0.00 0.00 0.00 72 1022.9
20240221170004 73 189 12.2 17.4 0.00 0.00 0.00 73 1023.0
20240221165902 73 186 9.6 17.4 0.00 0.00 0.00 74 1022.9
20240221165803 73 158 7.0 16.5 0.00 0.00 0.00 74 1023.0
20240221165704 73 193 7.8 16.5 0.00 0.00 0.00 73 1023.0
20240221165602 73 179 9.6 16.5 0.00 0.00 0.00 73 1023.0
20240221165502 73 204 11.3 16.5 0.00 0.00 0.00 73 1023.0
20240221165403 73 186 11.3 17.4 0.00 0.00 0.00 73 1023.0
20240221165305 73 217 8.7 17.4 0.00 0.00 0.00 74 1023.1
20240221165202 73 172 6.1 17.4 0.00 0.00 0.00 73 1023.1
20240221165101 73 195 8.7 17.4 0.00 0.00 0.00 73 1023.1
20240221165003 73 169 9.6 17.4 0.00 0.00 0.00 73 1023.0
20240221164903 73 165 8.7 17.4 0.00 0.00 0.00 73 1023.1
20240221164803 73 172 9.6 17.4 0.00 0.00 0.00 73 1023.0
20240221164703 72 188 11.3 17.4 0.00 0.00 0.00 73 1023.0
20240221164602 72 195 9.6 17.4 0.00 0.00 0.00 74 1023.0
20240221164504 72 183 7.8 17.4 0.00 0.00 0.00 74 1023.0
20240221164405 72 152 7.0 14.8 0.00 0.00 0.00 74 1023.0
20240221164302 72 179 9.6 14.8 0.00 0.00 0.00 74 1023.1
20240221164203 72 202 9.6 14.8 0.00 0.00 0.00 74 1023.0
20240221164102 72 212 9.6 14.8 0.00 0.00 0.00 74 1023.0
20240221164004 72 182 10.4 15.6 0.00 0.00 0.00 74 1023.1
20240221163902 72 179 9.6 15.6 0.00 0.00 0.00 75 1023.1
20240221163802 72 188 8.7 15.6 0.00 0.00 0.00 75 1023.0
20240221163703 72 159 8.7 15.6 0.00 0.00 0.00 75 1023.1
20240221163604 72 188 10.4 15.6 0.00 0.00 0.00 75 1023.1
20240221163503 72 154 11.3 15.6 0.00 0.00 0.00 75 1023.1
20240221163402 72 158 9.6 15.6 0.00 0.00 0.00 75 1023.1
20240221163303 72 188 9.6 15.6 0.00 0.00 0.00 75 1023.1
20240221163202 72 197 11.3 15.6 0.00 0.00 0.00 75 1023.1
20240221163103 72 186 10.4 15.6 0.00 0.00 0.00 75 1023.1
20240221163003 72 186 9.6 13.9 0.00 0.00 0.00 76 1023.1
20240221162902 72 196 8.7 13.9 0.00 0.00 0.00 75 1023.0
20240221162801 72 162 7.8 13.9 0.00 0.00 0.00 75 1023.0
20240221162703 72 172 9.6 17.4 0.00 0.00 0.00 76 1023.0
20240221162602 71 166 9.6 17.4 0.00 0.00 0.00 76 1023.0
20240221162502 71 144 8.7 17.4 0.00 0.00 0.00 76 1023.0
20240221162403 71 168 7.8 17.4 0.00 0.00 0.00 77 1023.0
20240221162305 71 195 7.8 17.4 0.00 0.00 0.00 77 1023.0
20240221162202 71 172 7.0 17.4 0.00 0.00 0.00 77 1023.0
20240221162103 71 189 7.0 17.4 0.00 0.00 0.00 77 1023.1
20240221162004 71 196 9.6 17.4 0.00 0.00 0.00 77 1023.1
20240221161902 71 182 12.2 17.4 0.00 0.00 0.00 76 1023.0
20240221161802 71 173 13.0 17.4 0.00 0.00 0.00 76 1023.0
20240221161702 71 193 13.0 17.4 0.00 0.00 0.00 76 1023.0
20240221161603 71 172 12.2 17.4 0.00 0.00 0.00 77 1023.0
20240221161502 71 193 10.4 17.4 0.00 0.00 0.00 77 1023.0
20240221161403 71 157 9.6 17.4 0.00 0.00 0.00 77 1023.0
20240221161303 71 176 11.3 17.4 0.00 0.00 0.00 77 1023.0
20240221161202 71 202 11.3 17.4 0.00 0.00 0.00 77 1023.0
20240221161104 71 214 11.3 17.4 0.00 0.00 0.00 77 1023.1
20240221161002 71 199 12.2 17.4 0.00 0.00 0.00 77 1023.1
20240221160902 71 204 12.2 17.4 0.00 0.00 0.00 77 1023.1
20240221160802 71 176 9.6 17.4 0.00 0.00 0.00 77 1023.1
20240221160702 71 176 10.4 17.4 0.00 0.00 0.00 77 1023.1
20240221160603 70 183 11.3 17.4 0.00 0.00 0.00 77 1023.1
20240221160502 70 166 11.3 17.4 0.00 0.00 0.00 77 1023.2
20240221160402 70 203 10.4 17.4 0.00 0.00 0.00 77 1023.1
20240221160303 70 200 10.4 17.4 0.00 0.00 0.00 77 1023.1
20240221160203 70 182 11.3 17.4 0.00 0.00 0.00 77 1023.1
20240221160103 70 166 12.2 17.4 0.00 0.00 0.00 78 1023.1
20240221160002 70 202 11.3 17.4 0.00 0.00 0.00 78 1023.1
20240221155904 70 179 11.3 18.2 0.00 0.00 0.00 78 1023.1
20240221155802 70 192 10.4 18.2 0.00 0.00 0.00 78 1023.1
20240221155701 70 210 10.4 19.1 0.00 0.00 0.00 78 1023.1
20240221155603 70 171 11.3 19.1 0.00 0.00 0.00 78 1023.1
20240221155503 70 219 10.4 19.1 0.00 0.00 0.00 78 1023.1
20240221155402 70 186 9.6 19.1 0.00 0.00 0.00 78 1023.2
20240221155306 70 193 11.3 19.1 0.00 0.00 0.00 78 1023.2
20240221155204 70 196 12.2 19.1 0.00 0.00 0.00 78 1023.2
20240221155102 70 178 12.2 19.1 0.00 0.00 0.00 78 1023.3
20240221155001 70 196 13.0 19.1 0.00 0.00 0.00 78 1023.2
20240221154904 70 186 13.9 19.1 0.00 0.00 0.00 78 1023.3
20240221154803 70 202 13.0 19.1 0.00 0.00 0.00 79 1023.3
20240221154701 70 213 10.4 17.4 0.00 0.00 0.00 79 1023.2
20240221154602 70 193 10.4 17.4 0.00 0.00 0.00 79 1023.3
20240221154503 69 179 9.6 17.4 0.00 0.00 0.00 79 1023.2
20240221154402 69 182 10.4 17.4 0.00 0.00 0.00 79 1023.2
20240221154303 69 173 12.2 17.4 0.00 0.00 0.00 79 1023.3
20240221154204 69 195 12.2 17.4 0.00 0.00 0.00 79 1023.2
20240221154102 69 197 10.4 17.4 0.00 0.00 0.00 79 1023.2
20240221154002 69 192 10.4 19.1 0.00 0.00 0.00 79 1023.3
20240221153904 69 180 11.3 20.0 0.00 0.00 0.00 79 1023.3
20240221153801 69 175 11.3 20.0 0.00 0.00 0.00 79 1023.4
20240221153702 69 186 12.2 20.0 0.00 0.00 0.00 79 1023.3
20240221153602 69 189 11.3 20.0 0.00 0.00 0.00 79 1023.3
20240221153502 69 183 12.2 20.0 0.00 0.00 0.00 79 1023.3
20240221153403 69 185 11.3 20.0 0.00 0.00 0.00 79 1023.3
20240221153302 69 169 9.6 20.0 0.00 0.00 0.00 79 1023.3
20240221153204 69 220 12.2 20.0 0.00 0.00 0.00 79 1023.3
20240221153103 69 186 13.9 20.0 0.00 0.00 0.00 79 1023.3
20240221153003 69 164 11.3 20.0 0.00 0.00 0.00 80 1023.3
20240221152902 69 159 9.6 14.8 0.00 0.00 0.00 80 1023.2
20240221152802 69 173 9.6 14.8 0.00 0.00 0.00 80 1023.2
20240221152702 69 214 9.6 16.5 0.00 0.00 0.00 80 1023.2
20240221152602 69 190 8.7 16.5 0.00 0.00 0.00 80 1023.3
20240221152504 69 183 9.6 16.5 0.00 0.00 0.00 80 1023.2
20240221152402 69 183 8.7 16.5 0.00 0.00 0.00 80 1023.2
20240221152305 69 178 7.8 16.5 0.00 0.00 0.00 80 1023.2
20240221152203 69 186 8.7 16.5 0.00 0.00 0.00 80 1023.3
20240221152103 69 190 10.4 16.5 0.00 0.00 0.00 80 1023.2
20240221152002 69 200 11.3 16.5 0.00 0.00 0.00 80 1023.3
20240221151902 69 197 11.3 16.5 0.00 0.00 0.00 80 1023.3
20240221151803 69 188 10.4 16.5 0.00 0.00 0.00 81 1023.3
20240221151702 69 223 8.7 13.9 0.00 0.00 0.00 81 1023.3
20240221151602 69 190 7.0 13.9 0.00 0.00 0.00 81 1023.3
20240221151503 69 185 6.1 13.9 0.00 0.00 0.00 81 1023.3
20240221151402 69 185 8.7 13.9 0.00 0.00 0.00 81 1023.3
20240221151301 69 199 10.4 13.9 0.00 0.00 0.00 81 1023.2
20240221151202 69 185 10.4 13.9 0.00 0.00 0.00 81 1023.3
20240221151103 69 189 10.4 13.9 0.00 0.00 0.00 81 1023.3
20240221151002 69 180 9.6 13.9 0.00 0.00 0.00 82 1023.3
20240221150903 68 159 8.7 13.9 0.00 0.00 0.00 82 1023.3
20240221150802 68 197 7.8 13.9 0.00 0.00 0.00 82 1023.3
20240221150702 68 200 9.6 14.8 0.00 0.00 0.00 82 1023.3
20240221150602 68 203 8.7 14.8 0.00 0.00 0.00 82 1023.3
20240221150503 68 185 7.8 14.8 0.00 0.00 0.00 82 1023.3
20240221150403 68 166 7.8 14.8 0.00 0.00 0.00 82 1023.3
20240221150301 68 192 7.8 14.8 0.00 0.00 0.00 82 1023.3
20240221150203 68 189 8.7 14.8 0.00 0.00 0.00 82 1023.4
20240221150104 68 164 9.6 14.8 0.00 0.00 0.00 82 1023.4
20240221150002 68 182 9.6 14.8 0.00 0.00 0.00 82 1023.4
20240221145903 68 173 9.6 14.8 0.00 0.00 0.00 82 1023.4
20240221145803 68 176 10.4 14.8 0.00 0.00 0.00 83 1023.4
20240221145703 68 193 10.4 14.8 0.00 0.00 0.00 83 1023.3
20240221145604 68 182 10.4 14.8 0.00 0.00 0.00 83 1023.3
20240221145502 68 155 9.6 13.9 0.00 0.00 0.00 83 1023.3
20240221145403 68 188 7.8 13.0 0.00 0.00 0.00 84 1023.3
20240221145306 68 182 6.1 13.0 0.00 0.00 0.00 84 1023.4
20240221145202 68 172 7.0 13.0 0.00 0.00 0.00 84 1023.4
20240221145104 67 168 7.8 13.0 0.00 0.00 0.00 84 1023.3
20240221145002 67 176 7.0 13.0 0.00 0.00 0.00 84 1023.4
20240221144902 67 168 7.0 13.0 0.00 0.00 0.00 84 1023.4
20240221144802 67 193 7.8 13.0 0.00 0.00 0.00 84 1023.4
20240221144702 67 204 7.8 13.0 0.00 0.00 0.00 84 1023.3
20240221144602 67 195 7.8 13.0 0.00 0.00 0.00 84 1023.4
20240221144502 67 203 7.8 12.2 0.00 0.00 0.00 85 1023.4
20240221144403 67 200 6.1 14.8 0.00 0.00 0.00 85 1023.4
20240221144302 67 172 7.0 14.8 0.00 0.00 0.00 85 1023.4
20240221144202 67 171 8.7 14.8 0.00 0.00 0.00 85 1023.4
20240221144103 67 182 8.7 14.8 0.00 0.00 0.00 85 1023.4
20240221144004 67 195 7.8 14.8 0.00 0.00 0.00 85 1023.3
20240221143901 67 189 7.0 14.8 0.00 0.00 0.00 85 1023.4
20240221143802 67 165 6.1 14.8 0.00 0.00 0.00 85 1023.4
20240221143702 67 207 6.1 14.8 0.00 0.00 0.00 85 1023.4
20240221143603 67 165 8.7 14.8 0.00 0.00 0.00 85 1023.4
20240221143502 67 183 8.7 14.8 0.00 0.00 0.00 86 1023.3
20240221143403 67 188 7.0 13.9 0.00 0.00 0.00 86 1023.3
20240221143302 67 200 7.0 13.9 0.00 0.00 0.00 86 1023.4
20240221143201 67 192 7.0 13.9 0.00 0.00 0.00 86 1023.3
20240221143102 66 166 7.8 13.9 0.00 0.00 0.00 86 1023.3
20240221143005 67 175 8.7 13.9 0.00 0.00 0.00 86 1023.4
20240221142902 66 190 7.8 13.9 0.00 0.00 0.00 86 1023.3
20240221142802 66 178 7.8 13.9 0.00 0.00 0.00 86 1023.3
20240221142703 66 186 9.6 13.9 0.00 0.00 0.00 86 1023.3
20240221142602 66 188 8.7 13.9 0.00 0.00 0.00 87 1023.2
20240221142501 66 196 6.1 13.9 0.00 0.00 0.00 87 1023.2
20240221142403 66 190 7.0 13.0 0.00 0.00 0.00 87 1023.2
20240221142305 66 183 7.8 13.0 0.00 0.00 0.00 87 1023.2
20240221142202 66 186 7.8 13.0 0.00 0.00 0.00 87 1023.2
20240221142103 66 195 7.0 13.0 0.00 0.00 0.00 87 1023.2
20240221142004 66 189 7.8 13.0 0.00 0.00 0.00 87 1023.2
20240221141901 66 185 7.8 13.0 0.00 0.00 0.00 88 1023.2
20240221141802 66 197 7.0 13.0 0.00 0.00 0.00 88 1023.2
20240221141703 66 179 5.2 13.0 0.00 0.00 0.00 88 1023.2
20240221141603 65 190 7.0 13.0 0.00 0.00 0.00 88 1023.2
20240221141502 65 188 7.8 13.0 0.00 0.00 0.00 88 1023.1
20240221141402 65 188 6.1 11.3 0.00 0.00 0.00 88 1023.1
20240221141303 65 179 6.1 10.4 0.00 0.00 0.00 88 1023.0
20240221141203 65 175 7.8 10.4 0.00 0.00 0.00 88 1023.0
20240221141102 65 164 7.8 10.4 0.00 0.00 0.00 88 1023.0
20240221141004 65 192 7.0 10.4 0.00 0.00 0.00 89 1023.0
20240221140902 65 189 7.0 10.4 0.00 0.00 0.00 89 1023.1
20240221140802 65 199 7.0 9.6 0.00 0.00 0.00 89 1023.1
20240221140702 65 196 7.0 9.6 0.00 0.00 0.00 89 1023.1
20240221140602 65 179 6.1 9.6 0.00 0.00 0.00 89 1023.1
20240221140502 65 220 6.1 10.4 0.00 0.00 0.00 89 1023.1
20240221140402 65 200 5.2 10.4 0.00 0.00 0.00 89 1023.1
20240221140303 65 173 5.2 10.4 0.00 0.00 0.00 90 1023.0
20240221140202 65 182 6.1 10.4 0.00 0.00 0.00 90 1023.0
20240221140101 65 182 5.2 10.4 0.00 0.00 0.00 90 1023.0
20240221140003 65 185 5.2 10.4 0.00 0.00 0.00 90 1023.0
20240221135902 65 202 5.2 10.4 0.00 0.00 0.00 90 1023.0
20240221135802 65 189 5.2 10.4 0.00 0.00 0.00 90 1023.0
20240221135702 65 192 6.1 10.4 0.00 0.00 0.00 90 1022.9
20240221135603 64 172 6.1 10.4 0.00 0.00 0.00 90 1023.0
20240221135502 64 175 6.1 10.4 0.00 0.00 0.00 90 1023.0
20240221135402 64 189 6.1 10.4 0.00 0.00 0.00 90 1023.0
20240221135305 64 197 6.1 10.4 0.00 0.00 0.00 91 1023.0
20240221135202 64 179 6.1 10.4 0.00 0.00 0.00 91 1023.0
20240221135102 64 188 6.1 10.4 0.00 0.00 0.00 91 1023.0
20240221135002 64 196 6.1 10.4 0.00 0.00 0.00 91 1022.9
20240221134904 64 199 6.1 8.7 0.00 0.00 0.00 91 1022.9
20240221134802 64 175 5.2 8.7 0.00 0.00 0.00 91 1022.9
20240221134702 64 188 4.3 8.7 0.00 0.00 0.00 91 1022.9
20240221134603 64 197 5.2 8.7 0.00 0.00 0.00 91 1022.8
20240221134502 64 183 4.3 8.7 0.00 0.00 0.00 92 1022.9
20240221134401 64 158 5.2 8.7 0.00 0.00 0.00 92 1022.8
20240221134302 64 183 5.2 8.7 0.00 0.00 0.00 92 1022.8
20240221134202 64 178 4.3 8.7 0.00 0.00 0.00 92 1022.8
20240221134102 64 175 4.3 8.7 0.00 0.00 0.00 92 1022.9
20240221134004 64 171 5.2 8.7 0.00 0.00 0.00 92 1022.8
20240221133903 64 168 5.2 8.7 0.00 0.00 0.00 92 1022.8
20240221133803 63 197 5.2 8.7 0.00 0.00 0.00 92 1022.9
20240221133702 63 183 5.2 7.8 0.00 0.00 0.00 92 1022.8
20240221133603 63 192 4.3 7.8 0.00 0.00 0.00 92 1022.9
20240221133503 63 180 3.5 7.8 0.00 0.00 0.00 92 1022.9
20240221133402 63 182 4.3 7.8 0.00 0.00 0.00 92 1022.9
20240221133301 63 179 5.2 7.8 0.00 0.00 0.00 92 1022.9
20240221133206 63 168 5.2 7.8 0.00 0.00 0.00 92 1022.8
20240221133102 63 189 4.3 7.8 0.00 0.00 0.00 92 1022.9
20240221133002 63 164 4.3 7.8 0.00 0.00 0.00 92 1022.9
20240221132902 63 176 5.2 7.8 0.00 0.00 0.00 92 1022.9
20240221132801 63 175 5.2 7.8 0.00 0.00 0.00 93 1022.9
20240221132702 63 182 5.2 7.8 0.00 0.00 0.00 93 1022.9
20240221132602 63 192 5.2 7.8 0.00 0.00 0.00 93 1022.9
20240221132504 63 186 4.3 6.1 0.00 0.00 0.00 93 1022.9
20240221132402 63 172 5.2 6.1 0.00 0.00 0.00 93 1022.8
20240221132305 62 171 5.2 6.1 0.00 0.00 0.00 93 1023.0
20240221132203 62 180 4.3 6.1 0.00 0.00 0.00 93 1022.8
20240221132102 62 171 3.5 5.2 0.00 0.00 0.00 93 1022.9
20240221132004 62 171 4.3 6.1 0.00 0.00 0.00 93 1022.9
20240221131904 62 171 4.3 7.8 0.00 0.00 0.00 93 1022.8
20240221131802 62 171 4.3 8.7 0.00 0.00 0.00 93 1022.9
20240221131703 62 171 4.3 8.7 0.00 0.00 0.00 93 1022.8
20240221131600 62 186 4.3 8.7 0.00 0.00 0.00 93 1022.9
20240221131458 62 192 3.5 8.7 0.00 0.00 0.00 93 1022.9
20240221131356 62 183 3.5 8.7 0.00 0.00 0.00 93 1022.9
20240221131255 62 186 4.3 8.7 0.00 0.00 0.00 93 1022.9
20240221131153 62 190 4.3 8.7 0.00 0.00 0.00 93 1022.9
20240221131052 62 199 5.2 8.7 0.00 0.00 0.00 93 1022.9
20240221130950 62 169 4.3 8.7 0.00 0.00 0.00 93 1022.9
20240221130848 62 186 4.3 8.7 0.00 0.00 0.00 93 1022.9
20240221130747 62 183 3.5 6.1 0.00 0.00 0.00 93 1022.9
20240221130646 62 179 3.5 6.1 0.00 0.00 0.00 93 1022.8
20240221130544 62 178 3.5 6.1 0.00 0.00 0.00 93 1022.8
20240221130443 62 193 2.6 6.1 0.00 0.00 0.00 93 1022.9
20240221130341 62 152 3.5 6.1 0.00 0.00 0.00 93 1022.9
20240221130240 62 178 4.3 6.1 0.00 0.00 0.00 93 1022.9
20240221130138 62 188 3.5 6.1 0.00 0.00 0.00 93 1022.8
20240221130036 62 179 4.3 6.1 0.00 0.00 0.00 93 1022.8
20240221125935 62 172 3.5 6.1 0.00 0.00 0.00 93 1022.8
20240221125832 62 189 3.5 5.2 0.00 0.00 0.00 93 1022.8
20240221125731 62 173 4.3 5.2 0.00 0.00 0.00 93 1022.9
20240221125632 62 200 4.3 5.2 0.00 0.00 0.00 93 1022.9
20240221125531 62 179 3.5 5.2 0.00 0.00 0.00 93 1022.9
20240221125432 62 182 3.5 5.2 0.00 0.00 0.00 93 1022.9
20240221125331 62 176 3.5 6.1 0.00 0.00 0.00 93 1022.9
20240221125230 62 176 3.5 6.1 0.00 0.00 0.00 93 1022.9
20240221125130 62 188 3.5 6.1 0.00 0.00 0.00 93 1022.9
20240221125032 62 182 4.3 6.1 0.00 0.00 0.00 93 1022.8
20240221124931 62 186 4.3 6.1 0.00 0.00 0.00 93 1022.9
20240221124831 62 192 3.5 6.1 0.00 0.00 0.00 93 1022.9
20240221124732 62 192 3.5 6.1 0.00 0.00 0.00 93 1022.9
20240221124630 62 186 3.5 7.8 0.00 0.00 0.00 93 1022.9
20240221124531 62 195 4.3 7.8 0.00 0.00 0.00 93 1022.9
20240221124432 62 185 3.5 7.8 0.00 0.00 0.00 93 1022.9
20240221124328 62 196 3.5 7.8 0.00 0.00 0.00 93 1023.0
20240221124228 62 176 4.3 7.8 0.00 0.00 0.00 93 1023.0
20240221124123 62 188 4.3 7.8 0.00 0.00 0.00 93 1023.0
20240221124023 62 197 4.3 7.8 0.00 0.00 0.00 93 1022.9
20240221123922 62 172 3.5 7.8 0.00 0.00 0.00 93 1022.9
20240221123823 62 190 4.3 7.8 0.00 0.00 0.00 93 1023.0
20240221123722 62 182 5.2 7.8 0.00 0.00 0.00 93 1022.9
20240221123623 62 183 3.5 6.1 0.00 0.00 0.00 93 1022.8
20240221123522 62 176 3.5 6.1 0.00 0.00 0.00 93 1022.8
20240221123423 62 199 3.5 6.1 0.00 0.00 0.00 93 1022.8
20240221123322 62 200 3.5 7.8 0.00 0.00 0.00 93 1022.9
20240221123223 62 183 3.5 7.8 0.00 0.00 0.00 93 1022.8
20240221123123 62 195 3.5 7.8 0.00 0.00 0.00 93 1022.9
20240221123022 62 173 3.5 7.8 0.00 0.00 0.00 93 1022.9
20240221122924 62 190 3.5 7.8 0.00 0.00 0.00 93 1022.9
20240221122822 62 186 4.3 7.8 0.00 0.00 0.00 93 1022.9
20240221122722 62 182 3.5 7.8 0.00 0.00 0.00 93 1022.9
20240221122622 62 183 3.5 7.8 0.00 0.00 0.00 93 1022.9
20240221122523 62 193 3.5 7.8 0.00 0.00 0.00 93 1022.8
20240221122424 62 195 4.3 7.8 0.00 0.00 0.00 93 1022.8
20240221122322 62 186 4.3 7.8 0.00 0.00 0.00 93 1022.8
20240221122222 62 171 5.2 7.8 0.00 0.00 0.00 93 1022.8
20240221122122 62 171 3.5 5.2 0.00 0.00 0.00 93 1022.7
20240221122024 62 176 3.5 5.2 0.00 0.00 0.00 93 1022.8
20240221121923 62 183 3.5 5.2 0.00 0.00 0.00 93 1022.8
20240221121822 62 175 3.5 5.2 0.00 0.00 0.00 93 1022.8
20240221121723 62 179 3.5 5.2 0.00 0.00 0.00 94 1022.7
20240221121622 62 182 4.3 5.2 0.00 0.00 0.00 94 1022.8
20240221121522 62 195 3.5 5.2 0.00 0.00 0.00 94 1022.8
20240221121422 62 176 3.5 5.2 0.00 0.00 0.00 94 1022.8
20240221121324 62 202 4.3 6.1 0.00 0.00 0.00 94 1022.8
20240221121223 62 195 3.5 6.1 0.00 0.00 0.00 94 1022.8
20240221121123 62 195 3.5 6.1 0.00 0.00 0.00 94 1022.8
20240221121022 62 195 3.5 6.1 0.00 0.00 0.00 94 1022.8
20240221120923 62 195 3.5 6.1 0.00 0.00 0.00 94 1022.7
20240221120822 62 195 3.5 6.1 0.00 0.00 0.00 94 1022.7
20240221120724 62 196 3.5 6.1 0.00 0.00 0.00 94 1022.7
20240221120622 62 197 3.5 6.1 0.00 0.00 0.00 94 1022.7
20240221120521 62 197 4.3 6.1 0.00 0.00 0.00 94 1022.7
20240221120423 62 168 5.2 6.1 0.00 0.00 0.00 94 1022.7
20240221120324 62 192 4.3 7.8 0.00 0.00 0.00 94 1022.6
20240221120222 62 195 4.3 7.8 0.00 0.00 0.00 94 1022.7
20240221120122 62 193 3.5 7.8 0.00 0.00 0.00 94 1022.7
20240221120023 62 193 3.5 7.8 0.00 0.00 0.00 94 1022.7
20240221115923 62 192 3.5 7.8 0.00 0.00 0.00 94 1022.7
20240221115821 62 200 4.3 7.8 0.00 0.00 0.00 94 1022.7
20240221115722 62 172 4.3 7.8 0.00 0.00 0.00 94 1022.7
20240221115622 62 185 4.3 7.8 0.00 0.00 0.00 94 1022.7
20240221115521 62 186 5.2 7.8 0.00 0.00 0.00 94 1022.8
20240221115421 62 189 5.2 7.8 0.00 0.00 0.00 94 1022.7
20240221115322 62 188 4.3 7.8 0.00 0.00 0.00 94 1022.7
20240221115223 62 193 4.3 7.8 0.00 0.00 0.00 94 1022.7
20240221115122 62 182 4.3 7.8 0.00 0.00 0.00 94 1022.7
20240221115021 62 197 3.5 7.8 0.00 0.00 0.00 94 1022.8
20240221114923 62 188 4.3 7.8 0.00 0.00 0.00 94 1022.7
20240221114822 62 186 5.2 7.8 0.00 0.00 0.00 94 1022.6
20240221114721 62 203 4.3 7.8 0.00 0.00 0.00 94 1022.6
20240221114622 62 176 4.3 7.8 0.00 0.00 0.00 94 1022.6
20240221114522 62 188 4.3 7.8 0.00 0.00 0.00 94 1022.6
20240221114423 62 195 4.3 7.8 0.00 0.00 0.00 94 1022.6
20240221114321 62 193 4.3 8.7 0.00 0.00 0.00 94 1022.6
20240221114221 62 180 5.2 8.7 0.00 0.00 0.00 94 1022.6
20240221114121 62 197 5.2 8.7 0.00 0.00 0.00 94 1022.6
20240221114022 62 195 5.2 8.7 0.00 0.00 0.00 94 1022.5
20240221113922 62 186 5.2 8.7 0.00 0.00 0.00 94 1022.5
20240221113822 62 197 5.2 8.7 0.00 0.00 0.00 94 1022.6
20240221113721 62 190 4.3 8.7 0.00 0.00 0.00 94 1022.5
20240221113621 62 216 5.2 8.7 0.00 0.00 0.00 94 1022.6
20240221113522 62 195 6.1 8.7 0.00 0.00 0.00 94 1022.5
20240221113421 62 206 5.2 8.7 0.00 0.00 0.00 94 1022.5
20240221113321 62 173 5.2 8.7 0.00 0.00 0.00 94 1022.5
20240221113223 62 179 6.1 8.7 0.00 0.00 0.00 94 1022.5
20240221113122 62 196 5.2 8.7 0.00 0.00 0.00 94 1022.5
20240221113021 62 179 5.2 8.7 0.00 0.00 0.00 94 1022.5
20240221112921 62 182 4.3 7.8 0.00 0.00 0.00 94 1022.5
20240221112823 62 183 4.3 7.8 0.00 0.00 0.00 94 1022.5
20240221112721 62 192 4.3 7.8 0.00 0.00 0.00 94 1022.6
20240221112621 62 196 4.3 7.8 0.00 0.00 0.00 94 1022.5
20240221112522 62 171 4.3 7.8 0.00 0.00 0.00 94 1022.4